Air Quality Table

TIMESTAMP NO2 SO2 O3 PM10 PM2.5 TEMP HUM AIRPRES WS WD NO
2022-08-10 21:00 4.94 µg/m3 -0.06 µg/m3 72.01 µg/m3 27.04 µg/m3 6.65 µg/m3 27.9 °C 71.28 % 1,006.56 mbar 0.83 m/s 237.89 Deg 0.73 µg/m3
2022-08-10 20:00 3.83 µg/m3 -0.04 µg/m3 78.37 µg/m3 32.15 µg/m3 7.24 µg/m3 28.25 °C 72.37 % 1,006.40 mbar 0.89 m/s 222.88 Deg 0.69 µg/m3
2022-08-10 19:00 4.98 µg/m3 -0.04 µg/m3 74.3 µg/m3 17.62 µg/m3 6.9 µg/m3 29.04 °C 69.75 % 1,006.25 mbar 1.21 m/s 268.91 Deg 0.85 µg/m3
2022-08-10 18:00 3.37 µg/m3 -0.02 µg/m3 74.66 µg/m3 15.5 µg/m3 6.45 µg/m3 29.69 °C 65.69 % 1,006.01 mbar 1.75 m/s 226.88 Deg 0.87 µg/m3
2022-08-10 17:00 2.57 µg/m3 -0.1 µg/m3 77.92 µg/m3 10.27 µg/m3 6.19 µg/m3 29.56 °C 65.54 % 1,006.07 mbar 2.66 m/s 198.13 Deg 0.97 µg/m3
2022-08-10 16:00 2.33 µg/m3 -0.08 µg/m3 77.48 µg/m3 8.33 µg/m3 4.84 µg/m3 29.48 °C 66 % 1,006.14 mbar 3.8 m/s 183.1 Deg 1 µg/m3
2022-08-10 15:00 2.35 µg/m3 -0.1 µg/m3 74.38 µg/m3 10.64 µg/m3 4.52 µg/m3 29.28 °C 71.96 % 1,006.27 mbar 4.45 m/s 165.63 Deg 1.03 µg/m3
2022-08-10 14:00 1.15 µg/m3 -0.08 µg/m3 75.83 µg/m3 12.46 µg/m3 5.25 µg/m3 29.16 °C 75.65 % 1,006.90 mbar 3.91 m/s 156.65 Deg 0.82 µg/m3
2022-08-10 13:00 0.49 µg/m3 -0.07 µg/m3 84.89 µg/m3 11.45 µg/m3 5.92 µg/m3 28.99 °C 77.91 % 1,007.13 mbar 4.69 m/s 132.72 Deg 0.67 µg/m3
2022-08-10 12:00 1.72 µg/m3 -0.07 µg/m3 82.43 µg/m3 10.04 µg/m3 5.64 µg/m3 29.32 °C 74.39 % 1,007.31 mbar 3.51 m/s 141.93 Deg 0.87 µg/m3
2022-08-10 11:00 6.1 µg/m3 -0.06 µg/m3 82.88 µg/m3 11.88 µg/m3 7.75 µg/m3 29.11 °C 76.1 % 1,007.38 mbar 3.75 m/s 146.97 Deg 1.75 µg/m3
2022-08-10 10:00 3.01 µg/m3 -0.05 µg/m3 85.15 µg/m3 15.34 µg/m3 11.14 µg/m3 28.82 °C 75.58 % 1,007.30 mbar 3.5 m/s 147 Deg 1.12 µg/m3
2022-08-10 09:00 16.46 µg/m3 -0.05 µg/m3 74.23 µg/m3 23.64 µg/m3 15.29 µg/m3 28.74 °C 73.67 % 1,007.17 mbar 2.38 m/s 156.1 Deg 3.34 µg/m3
2022-08-10 08:00 12.35 µg/m3 -0.03 µg/m3 76 µg/m3 41.51 µg/m3 19.91 µg/m3 28.23 °C 79.17 % 1,007.01 mbar 1.54 m/s 191.5 Deg 2.41 µg/m3
2022-08-10 07:00 23.16 µg/m3 -0.04 µg/m3 61.87 µg/m3 31.13 µg/m3 11.14 µg/m3 26.98 °C 88.93 % 1,006.89 mbar 1.11 m/s 249.83 Deg 2.42 µg/m3
2022-08-10 06:00 16.37 µg/m3 -0.03 µg/m3 54.06 µg/m3 32.29 µg/m3 11.12 µg/m3 26.59 °C 90.73 % 1,006.68 mbar 1.21 m/s 230.35 Deg 1.44 µg/m3
2022-08-10 05:00 10.12 µg/m3 -0.06 µg/m3 50.4 µg/m3 32.38 µg/m3 13.81 µg/m3 26.73 °C 91.68 % 1,006.28 mbar 0.96 m/s 188.87 Deg 1.11 µg/m3
2022-08-10 04:00 9.77 µg/m3 0.11 µg/m3 47.96 µg/m3 37.09 µg/m3 21.4 µg/m3 26.82 °C 91.75 % 1,006.35 mbar 0.83 m/s 196.83 Deg 0.94 µg/m3
2022-08-10 03:00 10.79 µg/m3 -0.03 µg/m3 43.35 µg/m3 27.83 µg/m3 8.67 µg/m3 26.9 °C 91.65 % 1,006.45 mbar 0.78 m/s 171.12 Deg 1.2 µg/m3
2022-08-10 02:00 8.13 µg/m3 -0.05 µg/m3 45.6 µg/m3 23.45 µg/m3 11.09 µg/m3 27.04 °C 90.41 % 1,006.63 mbar 1.11 m/s 207.47 Deg 0.96 µg/m3
2022-08-10 01:00 7.49 µg/m3 -0.05 µg/m3 58.96 µg/m3 32.55 µg/m3 17.62 µg/m3 27.29 °C 89.62 % 1,006.90 mbar 0.72 m/s 209.2 Deg 0.91 µg/m3
2022-08-10 00:00 7.92 µg/m3 -0.03 µg/m3 64.91 µg/m3 35.61 µg/m3 16.67 µg/m3 27.63 °C 88.32 % 1,007.26 mbar 0.62 m/s 283.33 Deg 0.83 µg/m3
2022-08-09 23:00 8.41 µg/m3 -0.05 µg/m3 68.22 µg/m3 41.31 µg/m3 18.35 µg/m3 27.91 °C 86.68 % 1,007.33 mbar 1.05 m/s 185.77 Deg 1.17 µg/m3
2022-08-09 22:00 10.74 µg/m3 -0.07 µg/m3 64.62 µg/m3 32.66 µg/m3 18.24 µg/m3 28.1 °C 84.85 % 1,007.17 mbar 1.31 m/s 291 Deg 1.06 µg/m3
2022-08-09 21:00 26.14 µg/m3 -0.09 µg/m3 55.83 µg/m3 37.46 µg/m3 8.67 µg/m3 28.45 °C 83.67 % 1,007.08 mbar 1.39 m/s 238.93 Deg 1.74 µg/m3
2022-08-09 20:00 23.75 µg/m3 -0.05 µg/m3 59.81 µg/m3 33.22 µg/m3 11.05 µg/m3 28.84 °C 79.19 % 1,006.71 mbar 1.99 m/s 98.05 Deg 2.05 µg/m3
2022-08-09 19:00 10.17 µg/m3 -0.09 µg/m3 73.72 µg/m3 30.28 µg/m3 12.06 µg/m3 29.21 °C 75.83 % 1,006.42 mbar 2.4 m/s 9.4 Deg 1.36 µg/m3
2022-08-09 18:00 8.74 µg/m3 -0.07 µg/m3 76.75 µg/m3 37.87 µg/m3 10.36 µg/m3 29.64 °C 75.89 % 1,006.44 mbar 2.54 m/s 100.15 Deg 1.95 µg/m3
2022-08-09 17:00 5.49 µg/m3 -0.04 µg/m3 73.71 µg/m3 36.21 µg/m3 5.33 µg/m3 30.81 °C 70.48 % 1,006.13 mbar 1.72 m/s 286.39 Deg 1.44 µg/m3
2022-08-09 16:00 5.06 µg/m3 -0.06 µg/m3 72.41 µg/m3 34.24 µg/m3 6.8 µg/m3 31.07 °C 68.11 % 1,006.08 mbar 2.97 m/s 242.54 Deg 1.58 µg/m3
2022-08-09 15:00 3.42 µg/m3 -0.09 µg/m3 76.49 µg/m3 18.03 µg/m3 7.25 µg/m3 31.04 °C 64.86 % 1,006.34 mbar 3.68 m/s 231.13 Deg 1.2 µg/m3
2022-08-09 14:00 2.33 µg/m3 -0.07 µg/m3 95.73 µg/m3 12.62 µg/m3 9.46 µg/m3 31.01 °C 60.67 % 1,006.61 mbar 4.2 m/s 214.35 Deg 0.88 µg/m3
2022-08-09 13:00 2.72 µg/m3 -0.04 µg/m3 104.43 µg/m3 14.57 µg/m3 11.97 µg/m3 30.79 °C 60.21 % 1,007.06 mbar 4.09 m/s 193.87 Deg 0.84 µg/m3
2022-08-09 12:00 6.92 µg/m3 -0.05 µg/m3 112.22 µg/m3 23.17 µg/m3 16.58 µg/m3 30.24 °C 67.88 % 1,007.36 mbar 4.1 m/s 177.82 Deg 1.27 µg/m3
2022-08-09 11:00 14.07 µg/m3 -0.04 µg/m3 105.35 µg/m3 28.63 µg/m3 13.55 µg/m3 29.59 °C 73.53 % 1,007.49 mbar 3.4 m/s 158.31 Deg 2.3 µg/m3
2022-08-09 10:00 7.66 µg/m3 -0.07 µg/m3 102.61 µg/m3 33.82 µg/m3 13.54 µg/m3 29.52 °C 74.37 % 1,007.33 mbar 2.6 m/s 185.93 Deg 1.42 µg/m3
2022-08-09 09:00 4.12 µg/m3 -0.04 µg/m3 99.02 µg/m3 54.54 µg/m3 15.1 µg/m3 29.52 °C 72.45 % 1,007.10 mbar 1.99 m/s 180.38 Deg 1.04 µg/m3
2022-08-09 08:00 10.31 µg/m3 -0.02 µg/m3 92.21 µg/m3 88.71 µg/m3 21.3 µg/m3 28.81 °C 77.46 % 1,006.95 mbar 1.09 m/s 167.61 Deg 1.78 µg/m3
2022-08-09 07:00 32.13 µg/m3 0.09 µg/m3 61.93 µg/m3 100.53 µg/m3 23.88 µg/m3 27.94 °C 85.42 % 1,006.71 mbar 0.74 m/s 107.26 Deg 3.55 µg/m3
2022-08-09 06:00 55.09 µg/m3 0.17 µg/m3 27.37 µg/m3 47.72 µg/m3 9.88 µg/m3 27.01 °C 85.29 % 1,006.29 mbar 0.43 m/s 241.08 Deg 9.27 µg/m3
2022-08-09 05:00 24.33 µg/m3 0.01 µg/m3 61.88 µg/m3 22.02 µg/m3 16.13 µg/m3 27.03 °C 85.14 % 1,006.04 mbar 0.82 m/s 326.27 Deg 1.53 µg/m3
2022-08-09 04:00 8.2 µg/m3 0.06 µg/m3 73.14 µg/m3 23.12 µg/m3 10.13 µg/m3 26.99 °C 86.79 % 1,005.97 mbar 0.43 m/s 273.14 Deg 0.88 µg/m3
2022-08-09 03:00 12.31 µg/m3 -0.07 µg/m3 70.18 µg/m3 34.01 µg/m3 14.33 µg/m3 27.13 °C 86.59 % 1,005.99 mbar 0.66 m/s 305.65 Deg 1.1 µg/m3
2022-08-09 02:00 4.69 µg/m3 -0.07 µg/m3 80.48 µg/m3 32.74 µg/m3 13.18 µg/m3 27.34 °C 90.04 % 1,006.01 mbar 0.58 m/s 180.84 Deg 0.72 µg/m3
2022-08-09 01:00 4.68 µg/m3 -0.07 µg/m3 91.84 µg/m3 45.03 µg/m3 10.83 µg/m3 27.68 °C 88.71 % 1,006.26 mbar 1.11 m/s 97.17 Deg 0.75 µg/m3
2022-08-09 00:00 5.31 µg/m3 -0.05 µg/m3 97.32 µg/m3 29.67 µg/m3 17.33 µg/m3 27.82 °C 86.08 % 1,006.75 mbar 1.25 m/s 38.57 Deg 0.94 µg/m3
2022-08-08 23:00 7.98 µg/m3 -0.04 µg/m3 95.31 µg/m3 34.55 µg/m3 19.78 µg/m3 27.82 °C 86.54 % 1,006.89 mbar 1.43 m/s 39.9 Deg 0.78 µg/m3
2022-08-08 22:00 4.84 µg/m3 -0.02 µg/m3 97.85 µg/m3 44.36 µg/m3 14.37 µg/m3 27.93 °C 87.72 % 1,006.74 mbar 1.23 m/s 184.97 Deg 1.38 µg/m3
2022-08-08 21:00 6.24 µg/m3 -0.02 µg/m3 100.16 µg/m3 31.11 µg/m3 9.89 µg/m3 28.27 °C 85.52 % 1,006.70 mbar 1.39 m/s 117.02 Deg 0.82 µg/m3
2022-08-08 20:00 8.07 µg/m3 -0.05 µg/m3 98.53 µg/m3 32.44 µg/m3 14.08 µg/m3 28.45 °C 83.41 % 1,005.93 mbar 1.27 m/s 152.72 Deg 0.78 µg/m3
2022-08-08 19:00 9.36 µg/m3 -0.03 µg/m3 101.24 µg/m3 29.63 µg/m3 21.22 µg/m3 28.99 °C 80.48 % 1,005.33 mbar 1.65 m/s 29.37 Deg 1.19 µg/m3
2022-08-08 18:00 3.89 µg/m3 -0.06 µg/m3 110.14 µg/m3 33.83 µg/m3 19.06 µg/m3 29.37 °C 78.95 % 1,004.90 mbar 2.28 m/s 211.3 Deg 0.81 µg/m3
2022-08-08 17:00 5.48 µg/m3 0.01 µg/m3 107.08 µg/m3 21.23 µg/m3 20.59 µg/m3 30.16 °C 74.91 % 1,004.94 mbar 2.11 m/s 176.69 Deg 1.39 µg/m3
2022-08-08 16:00 2.48 µg/m3 0.01 µg/m3 109.92 µg/m3 22.72 µg/m3 12.6 µg/m3 30.13 °C 73.52 % 1,004.74 mbar 2.97 m/s 174.89 Deg 0.82 µg/m3
2022-08-08 15:00 3.79 µg/m3 0.02 µg/m3 106.82 µg/m3 27.32 µg/m3 7.88 µg/m3 30.45 °C 72.54 % 1,004.85 mbar 2.94 m/s 175.13 Deg 0.95 µg/m3
2022-08-08 14:00 1.84 µg/m3 0.23 µg/m3 101.79 µg/m3 23.02 µg/m3 12.88 µg/m3 30.38 °C 76.03 % 1,005.33 mbar 2.96 m/s 261.11 Deg 0.84 µg/m3
2022-08-08 13:00 4.79 µg/m3 0 µg/m3 111.34 µg/m3 28.22 µg/m3 6.2 µg/m3 30.49 °C 75.49 % 1,005.21 mbar 3.16 m/s 224.72 Deg 0.94 µg/m3
2022-08-08 12:00 5.68 µg/m3 0 µg/m3 100.17 µg/m3 17.54 µg/m3 8.14 µg/m3 30.36 °C 76.57 % 1,005.39 mbar 2.67 m/s 111.3 Deg 1.1 µg/m3
2022-08-08 11:00 6.82 µg/m3 0 µg/m3 93.53 µg/m3 12.44 µg/m3 7.32 µg/m3 30.37 °C 71.84 % 1,005.42 mbar 2.64 m/s 184.68 Deg 1.36 µg/m3
2022-08-08 10:00 7.87 µg/m3 0 µg/m3 83.13 µg/m3 17.24 µg/m3 8.52 µg/m3 30.02 °C 71.87 % 1,005.37 mbar 2.51 m/s 185.65 Deg 1.49 µg/m3
2022-08-08 09:00 8.88 µg/m3 0 µg/m3 74.77 µg/m3 26.14 µg/m3 12.59 µg/m3 29.99 °C 68.19 % 1,005.09 mbar 2.18 m/s 214.73 Deg 1.3 µg/m3
2022-08-08 08:00 13.19 µg/m3 0 µg/m3 54.73 µg/m3 46.06 µg/m3 18.71 µg/m3 28.53 °C 80.74 % 1,004.79 mbar 1.15 m/s 195.33 Deg 2.69 µg/m3
2022-08-08 07:00 18.73 µg/m3 0 µg/m3 30.08 µg/m3 48.07 µg/m3 18.67 µg/m3 26.5 °C 99.2 % 1,004.44 mbar 0.71 m/s 138.75 Deg 4.08 µg/m3
2022-08-08 06:00 30.35 µg/m3 0 µg/m3 20.84 µg/m3 47.31 µg/m3 7.77 µg/m3 26.21 °C 99.9 % 1,004.07 mbar 0.6 m/s 166 Deg 2.55 µg/m3
2022-08-08 05:00 25.61 µg/m3 0 µg/m3 18.94 µg/m3 19.46 µg/m3 10.65 µg/m3 26.26 °C 96.27 % 1,003.68 mbar 0.81 m/s 155.75 Deg 2.92 µg/m3
2022-08-08 04:00 6.84 µg/m3 0 µg/m3 48.86 µg/m3 12.47 µg/m3 9.43 µg/m3 26.46 °C 91.68 % 1,003.39 mbar 0.6 m/s 237.69 Deg 0.86 µg/m3
2022-08-08 03:00 5.79 µg/m3 0 µg/m3 45.22 µg/m3 16 µg/m3 8.81 µg/m3 26.66 °C 91.27 % 1,003.46 mbar 0.63 m/s 214.58 Deg 0.77 µg/m3
2022-08-08 02:00 5.76 µg/m3 0 µg/m3 44.28 µg/m3 23.9 µg/m3 11.32 µg/m3 26.77 °C 93.89 % 1,003.54 mbar 0.87 m/s 276.65 Deg 0.79 µg/m3
2022-08-08 01:00 9.24 µg/m3 0 µg/m3 45.12 µg/m3 36.53 µg/m3 15.25 µg/m3 27.15 °C 92.26 % 1,003.81 mbar 0.69 m/s 313.76 Deg 0.83 µg/m3
2022-08-08 00:00 9.18 µg/m3 0 µg/m3 50.14 µg/m3 52.68 µg/m3 23.06 µg/m3 27.22 °C 92.95 % 1,004.09 mbar 1.28 m/s 318.07 Deg 1.05 µg/m3
2022-08-07 23:00 15.37 µg/m3 0 µg/m3 49.98 µg/m3 47.69 µg/m3 13.24 µg/m3 27.51 °C 89.74 % 1,004.16 mbar 1.51 m/s 307.22 Deg 1.24 µg/m3
2022-08-07 22:00 21.56 µg/m3 0 µg/m3 52.14 µg/m3 35.6 µg/m3 20.03 µg/m3 28.19 °C 79.83 % 1,004.11 mbar 1.48 m/s 312.1 Deg 1.51 µg/m3
2022-08-07 21:00 24.57 µg/m3 0 µg/m3 57.59 µg/m3 41.74 µg/m3 12.83 µg/m3 28.26 °C 81.53 % 1,003.96 mbar 1.69 m/s 347.53 Deg 1.8 µg/m3
2022-08-07 20:00 19.4 µg/m3 0 µg/m3 71.55 µg/m3 34.63 µg/m3 13.91 µg/m3 28.41 °C 78.75 % 1,003.47 mbar 2.37 m/s 347.43 Deg 1.56 µg/m3
2022-08-07 19:00 16.08 µg/m3 0 µg/m3 81.17 µg/m3 22.97 µg/m3 10.37 µg/m3 28.72 °C 77.79 % 1,003.00 mbar 3.19 m/s 184.35 Deg 1.48 µg/m3
2022-08-07 18:00 8.41 µg/m3 0 µg/m3 104 µg/m3 18.38 µg/m3 9.62 µg/m3 29.57 °C 68.94 % 1,002.58 mbar 3.57 m/s 13.98 Deg 1.32 µg/m3
2022-08-07 17:00 6.25 µg/m3 0 µg/m3 107.99 µg/m3 11.13 µg/m3 4.83 µg/m3 31.16 °C 62.42 % 1,002.65 mbar 2.95 m/s 97.15 Deg 1.05 µg/m3
2022-08-07 16:00 2.68 µg/m3 0 µg/m3 111.34 µg/m3 7.32 µg/m3 4.05 µg/m3 31.51 °C 56.83 % 1,002.74 mbar 3.44 m/s 228.2 Deg 0.73 µg/m3
2022-08-07 15:00 2.94 µg/m3 0 µg/m3 110.2 µg/m3 8.03 µg/m3 4.41 µg/m3 30.44 °C 62.95 % 1,003.05 mbar 4.12 m/s 164.4 Deg 0.8 µg/m3
2022-08-07 14:00 5.44 µg/m3 0 µg/m3 107.82 µg/m3 9.36 µg/m3 5.34 µg/m3 30.46 °C 64.98 % 1,003.47 mbar 3 m/s 155.38 Deg 1.08 µg/m3
2022-08-07 13:00 4.57 µg/m3 0 µg/m3 103.27 µg/m3 9.07 µg/m3 4.97 µg/m3 30.8 °C 61.87 % 1,003.85 mbar 2.81 m/s 158.58 Deg 0.97 µg/m3
2022-08-07 12:00 3.22 µg/m3 0 µg/m3 95.5 µg/m3 12.27 µg/m3 5.03 µg/m3 31.09 °C 58.94 % 1,004.18 mbar 2.26 m/s 212.72 Deg 1.13 µg/m3
2022-08-07 11:00 3.73 µg/m3 0 µg/m3 91.98 µg/m3 16.6 µg/m3 7.19 µg/m3 30.91 °C 60.66 % 1,004.46 mbar 2.19 m/s 236.17 Deg 0.86 µg/m3
2022-08-07 10:00 5.94 µg/m3 0 µg/m3 85.36 µg/m3 23.8 µg/m3 9.82 µg/m3 30.19 °C 67.12 % 1,004.59 mbar 2.02 m/s 30.42 Deg 1.16 µg/m3
2022-08-07 09:00 4.47 µg/m3 0 µg/m3 81.77 µg/m3 37.95 µg/m3 14.66 µg/m3 29.08 °C 77.03 % 1,004.25 mbar 2.23 m/s 110.17 Deg 1.09 µg/m3
2022-08-07 08:00 8.33 µg/m3 0 µg/m3 72.39 µg/m3 46.06 µg/m3 24.98 µg/m3 28.16 °C 88.89 % 1,003.98 mbar 2.4 m/s 35.83 Deg 1.92 µg/m3
2022-08-07 07:00 15.64 µg/m3 0 µg/m3 56.86 µg/m3 48.91 µg/m3 8.94 µg/m3 27.41 °C 91.4 % 1,003.64 mbar 1.98 m/s 10.85 Deg 2.47 µg/m3
2022-08-07 06:00 20.49 µg/m3 0 µg/m3 49.1 µg/m3 44.17 µg/m3 10.2 µg/m3 26.61 °C 89.54 % 1,003.29 mbar 1.55 m/s 346.95 Deg 1.81 µg/m3
2022-08-07 05:00 23.37 µg/m3 0 µg/m3 44.35 µg/m3 22.38 µg/m3 5.9 µg/m3 26.59 °C 86.19 % 1,003.16 mbar 1.26 m/s 274.62 Deg 1.29 µg/m3
2022-08-07 04:00 14.82 µg/m3 0 µg/m3 56.01 µg/m3 19.47 µg/m3 7.32 µg/m3 27.04 °C 82.23 % 1,003.21 mbar 0.63 m/s 313.85 Deg 0.95 µg/m3
2022-08-07 03:00 7.7 µg/m3 0 µg/m3 65.46 µg/m3 16.21 µg/m3 6.49 µg/m3 27.1 °C 84.86 % 1,003.36 mbar 1.08 m/s 338.47 Deg 0.78 µg/m3
2022-08-07 02:00 5.73 µg/m3 0 µg/m3 63.25 µg/m3 15.34 µg/m3 8.75 µg/m3 27.14 °C 85.59 % 1,003.71 mbar 2.07 m/s 291.5 Deg 1 µg/m3
2022-08-07 01:00 4.54 µg/m3 0 µg/m3 63.23 µg/m3 18.57 µg/m3 13.56 µg/m3 27.3 °C 85.95 % 1,004.34 mbar 2.09 m/s 290.08 Deg 0.83 µg/m3
2022-08-07 00:00 8.32 µg/m3 0 µg/m3 56.81 µg/m3 26.39 µg/m3 15.42 µg/m3 27.38 °C 85.18 % 1,004.91 mbar 1.73 m/s 295.25 Deg 1.01 µg/m3
2022-08-06 23:00 8.47 µg/m3 0 µg/m3 53.8 µg/m3 45.07 µg/m3 14.09 µg/m3 27.7 °C 84.45 % 1,005.14 mbar 2.25 m/s 302.98 Deg 1.18 µg/m3
2022-08-06 22:00 7.43 µg/m3 0 µg/m3 56.33 µg/m3 53.01 µg/m3 20.35 µg/m3 27.98 °C 84.44 % 1,005.26 mbar 1.96 m/s 303.63 Deg 1.24 µg/m3
2022-08-06 21:00 9.43 µg/m3 0 µg/m3 56.59 µg/m3 53.44 µg/m3 13.17 µg/m3 28.34 °C 81.82 % 1,005.21 mbar 2.31 m/s 308.75 Deg 1.68 µg/m3
2022-08-06 20:00 10.21 µg/m3 0 µg/m3 59.86 µg/m3 50.8 µg/m3 9.16 µg/m3 28.83 °C 77 % 1,004.84 mbar 2.85 m/s 315.82 Deg 2.02 µg/m3
2022-08-06 19:00 10.58 µg/m3 0 µg/m3 66.08 µg/m3 24.3 µg/m3 6.19 µg/m3 30.09 °C 63.83 % 1,004.47 mbar 2.8 m/s 317.52 Deg 2 µg/m3
2022-08-06 18:00 7.4 µg/m3 0 µg/m3 77.47 µg/m3 7.96 µg/m3 5.74 µg/m3 31.59 °C 51.52 % 1,004.13 mbar 3.1 m/s 323.47 Deg 1.42 µg/m3
2022-08-06 17:00 7.69 µg/m3 0 µg/m3 83.51 µg/m3 7.34 µg/m3 6.18 µg/m3 32.64 °C 40.67 % 1,004.28 mbar 3.18 m/s 317.95 Deg 1.63 µg/m3
2022-08-06 16:00 7.15 µg/m3 0 µg/m3 86.06 µg/m3 11.93 µg/m3 5.48 µg/m3 33.47 °C 35.35 % 1,004.49 mbar 3.14 m/s 319.75 Deg 1.68 µg/m3
2022-08-06 15:00 6.51 µg/m3 0 µg/m3 93.83 µg/m3 14.66 µg/m3 6.98 µg/m3 33.75 °C 34.15 % 1,004.90 mbar 3.19 m/s 325.52 Deg 1.29 µg/m3
2022-08-06 14:00 8 µg/m3 0 µg/m3 97.06 µg/m3 19.43 µg/m3 7 µg/m3 34.03 °C 36.96 % 1,005.29 mbar 2.61 m/s 336.3 Deg 1.4 µg/m3
2022-08-06 13:00 9.54 µg/m3 0 µg/m3 96.76 µg/m3 31.16 µg/m3 7.4 µg/m3 33.46 °C 45.12 % 1,005.46 mbar 2.71 m/s 331.72 Deg 1.65 µg/m3
2022-08-06 12:00 13.47 µg/m3 0 µg/m3 89.8 µg/m3 29.68 µg/m3 5.03 µg/m3 31.83 °C 62.82 % 1,005.66 mbar 3.79 m/s 182.65 Deg 2.85 µg/m3
2022-08-06 11:00 15.88 µg/m3 0 µg/m3 87.11 µg/m3 17.7 µg/m3 6.53 µg/m3 32.18 °C 56.38 % 1,005.86 mbar 2.99 m/s 332.7 Deg 3.81 µg/m3
2022-08-06 10:00 15.39 µg/m3 0 µg/m3 82.18 µg/m3 11.97 µg/m3 7.29 µg/m3 31.5 °C 51.22 % 1,005.80 mbar 3.34 m/s 330.83 Deg 4.71 µg/m3
2022-08-06 09:00 14.29 µg/m3 0 µg/m3 78.02 µg/m3 16.02 µg/m3 7.62 µg/m3 30.12 °C 58.35 % 1,005.75 mbar 3.13 m/s 329.73 Deg 2.99 µg/m3
2022-08-06 08:00 16.93 µg/m3 0 µg/m3 70.19 µg/m3 26.85 µg/m3 12.36 µg/m3 28.79 °C 68.44 % 1,005.77 mbar 3.04 m/s 323.45 Deg 3.57 µg/m3
2022-08-06 07:00 19.94 µg/m3 0 µg/m3 61.28 µg/m3 30.59 µg/m3 13.35 µg/m3 27.57 °C 84.27 % 1,005.90 mbar 2.07 m/s 322.27 Deg 2.8 µg/m3
2022-08-06 06:00 22.18 µg/m3 0 µg/m3 54.64 µg/m3 29.34 µg/m3 13.14 µg/m3 26.65 °C 90.88 % 1,005.92 mbar 1.85 m/s 307.73 Deg 2.55 µg/m3
2022-08-06 05:00 10.85 µg/m3 0 µg/m3 61.55 µg/m3 19.12 µg/m3 13.65 µg/m3 26.62 °C 90.15 % 1,005.68 mbar 1.36 m/s 308.73 Deg 1.1 µg/m3
2022-08-06 04:00 7.59 µg/m3 0 µg/m3 61.3 µg/m3 24.72 µg/m3 15.84 µg/m3 26.58 °C 90.67 % 1,005.71 mbar 1.73 m/s 303.62 Deg 0.83 µg/m3
2022-08-06 03:00 7.32 µg/m3 0 µg/m3 61.39 µg/m3 27.52 µg/m3 15.29 µg/m3 26.75 °C 91.02 % 1,005.86 mbar 1.55 m/s 310.42 Deg 0.98 µg/m3
2022-08-06 02:00 7.42 µg/m3 0 µg/m3 59.68 µg/m3 43.99 µg/m3 12.74 µg/m3 26.97 °C 90.52 % 1,005.95 mbar 1.41 m/s 312.37 Deg 0.78 µg/m3
2022-08-06 01:00 8.52 µg/m3 0 µg/m3 64.75 µg/m3 44.18 µg/m3 16.45 µg/m3 27.22 °C 87.72 % 1,006.23 mbar 1.53 m/s 316.72 Deg 1 µg/m3
2022-08-06 00:00 9.64 µg/m3 0 µg/m3 68.28 µg/m3 56.01 µg/m3 17.58 µg/m3 27.46 °C 83.53 % 1,006.63 mbar 1.53 m/s 305.3 Deg 0.88 µg/m3
2022-08-05 23:00 11.48 µg/m3 0 µg/m3 69.29 µg/m3 47.73 µg/m3 16.32 µg/m3 27.93 °C 76.49 % 1,006.62 mbar 1.67 m/s 304.13 Deg 0.91 µg/m3
2022-08-05 22:00 17.6 µg/m3 0 µg/m3 66.09 µg/m3 40.49 µg/m3 8.11 µg/m3 28.42 °C 68.43 % 1,006.65 mbar 1.52 m/s 302.88 Deg 0.99 µg/m3
2022-08-05 21:00 18.59 µg/m3 0 µg/m3 68.69 µg/m3 48.25 µg/m3 7.88 µg/m3 29.26 °C 61.38 % 1,006.66 mbar 1.56 m/s 323.65 Deg 1.31 µg/m3
2022-08-05 20:00 17.46 µg/m3 0 µg/m3 78.98 µg/m3 27.99 µg/m3 5.97 µg/m3 29.81 °C 56.62 % 1,006.18 mbar 1.98 m/s 330.42 Deg 1.22 µg/m3
2022-08-05 19:00 20.86 µg/m3 0 µg/m3 83.84 µg/m3 13.93 µg/m3 5.29 µg/m3 31.14 °C 45.99 % 1,005.83 mbar 2.26 m/s 326.45 Deg 1.72 µg/m3
2022-08-05 18:00 14.39 µg/m3 0 µg/m3 91.36 µg/m3 13.63 µg/m3 5.99 µg/m3 32.11 °C 41.2 % 1,005.77 mbar 2.52 m/s 309.73 Deg 1.6 µg/m3
2022-08-05 17:00 11.49 µg/m3 0 µg/m3 99.19 µg/m3 19.01 µg/m3 5.44 µg/m3 32.38 °C 45.43 % 1,006.11 mbar 2.11 m/s 298.76 Deg 1.44 µg/m3
2022-08-05 16:00 10.12 µg/m3 0 µg/m3 99.05 µg/m3 16.79 µg/m3 4.41 µg/m3 32.05 °C 47.98 % 1,006.34 mbar 3.26 m/s 88.55 Deg 1.72 µg/m3
2022-08-05 15:00 7.2 µg/m3 0 µg/m3 97.09 µg/m3 12.55 µg/m3 5.1 µg/m3 32.01 °C 44.07 % 1,006.66 mbar 3.89 m/s 7.97 Deg 1.81 µg/m3
2022-08-05 14:00 6.95 µg/m3 0 µg/m3 88.75 µg/m3 15.33 µg/m3 3.6 µg/m3 31.73 °C 43.32 % 1,007.05 mbar 4.09 m/s 266.17 Deg 2.41 µg/m3
2022-08-05 13:00 8.07 µg/m3 0 µg/m3 88.85 µg/m3 19.87 µg/m3 4.32 µg/m3 31.31 °C 54.89 % 1,007.32 mbar 3.44 m/s 12.23 Deg 1.87 µg/m3
2022-08-05 12:00 10.96 µg/m3 0 µg/m3 86.93 µg/m3 15.46 µg/m3 5.76 µg/m3 30.85 °C 59.7 % 1,007.63 mbar 2.76 m/s 185.29 Deg 4.41 µg/m3
2022-08-05 11:00 7.92 µg/m3 0 µg/m3 83.88 µg/m3 18.43 µg/m3 7.37 µg/m3 30.3 °C 58.06 % 1,007.83 mbar 3 m/s 179.62 Deg 2.01 µg/m3
2022-08-05 10:00 10.23 µg/m3 0 µg/m3 75.86 µg/m3 19.67 µg/m3 10.42 µg/m3 30.03 °C 60.23 % 1,007.82 mbar 3.15 m/s 13.88 Deg 2.59 µg/m3
2022-08-05 09:00 16.08 µg/m3 0 µg/m3 66 µg/m3 28.11 µg/m3 14.04 µg/m3 29.98 °C 59.1 % 1,007.67 mbar 2.6 m/s 98.68 Deg 3.66 µg/m3
2022-08-05 08:00 35.46 µg/m3 0 µg/m3 52.75 µg/m3 45.3 µg/m3 22.85 µg/m3 29.02 °C 63.03 % 1,007.38 mbar 2.09 m/s 339.92 Deg 7.55 µg/m3
2022-08-05 07:00 58.66 µg/m3 0 µg/m3 26.56 µg/m3 51.65 µg/m3 17.66 µg/m3 27.31 °C 84.23 % 1,007.24 mbar 1.37 m/s 318.17 Deg 11.98 µg/m3
2022-08-05 06:00 37.46 µg/m3 0 µg/m3 44.34 µg/m3 28.37 µg/m3 19.92 µg/m3 26.44 °C 91.65 % 1,007.19 mbar 1.14 m/s 310.03 Deg 3.45 µg/m3
2022-08-05 05:00 19.8 µg/m3 0 µg/m3 61.67 µg/m3 31.86 µg/m3 13.08 µg/m3 26.45 °C 91.86 % 1,007.05 mbar 1.23 m/s 296.85 Deg 1.13 µg/m3
2022-08-05 04:00 10.43 µg/m3 0 µg/m3 79.33 µg/m3 21.26 µg/m3 10.06 µg/m3 26.84 °C 90.38 % 1,007.04 mbar 1.16 m/s 315.67 Deg 0.75 µg/m3
2022-08-05 03:00 7.53 µg/m3 0 µg/m3 92.31 µg/m3 25.71 µg/m3 13.27 µg/m3 27.21 °C 86.92 % 1,007.25 mbar 1.52 m/s 352.85 Deg 0.71 µg/m3
2022-08-05 02:00 6.46 µg/m3 0 µg/m3 79.01 µg/m3 28.04 µg/m3 11.09 µg/m3 27.36 °C 87.8 % 1,007.56 mbar 1.54 m/s 265.5 Deg 0.7 µg/m3
2022-08-05 01:00 4.45 µg/m3 0 µg/m3 83.41 µg/m3 23.02 µg/m3 17.37 µg/m3 27.74 °C 82.38 % 1,007.79 mbar 1.74 m/s 174.67 Deg 0.71 µg/m3
2022-08-05 00:00 14.29 µg/m3 0 µg/m3 68.07 µg/m3 23.53 µg/m3 8.78 µg/m3 27.87 °C 78.22 % 1,007.93 mbar 1.11 m/s 101.37 Deg 0.78 µg/m3
2022-08-04 23:00 7.53 µg/m3 0 µg/m3 79.67 µg/m3 35.27 µg/m3 13.42 µg/m3 27.88 °C 78.32 % 1,007.95 mbar 0.78 m/s 214.53 Deg 0.68 µg/m3
2022-08-04 22:00 6.73 µg/m3 0 µg/m3 88.52 µg/m3 45.49 µg/m3 16.36 µg/m3 28.16 °C 76.85 % 1,008.00 mbar 1.44 m/s 33.38 Deg 1.03 µg/m3
2022-08-04 21:00 5.1 µg/m3 0 µg/m3 95.17 µg/m3 48.88 µg/m3 14.79 µg/m3 28.38 °C 75.12 % 1,007.86 mbar 2.11 m/s 35.45 Deg 0.82 µg/m3
2022-08-04 20:00 8.98 µg/m3 0 µg/m3 104.57 µg/m3 26.82 µg/m3 15.92 µg/m3 28.63 °C 73.03 % 1,007.33 mbar 1.84 m/s 37.58 Deg 0.7 µg/m3
2022-08-04 19:00 9.59 µg/m3 0 µg/m3 116.36 µg/m3 26.54 µg/m3 15.59 µg/m3 29.31 °C 66.39 % 1,007.16 mbar 1.75 m/s 125.38 Deg 0.69 µg/m3
2022-08-04 18:00 5.79 µg/m3 0 µg/m3 119.94 µg/m3 19.2 µg/m3 6.86 µg/m3 29.93 °C 63.67 % 1,007.06 mbar 1.98 m/s 215.05 Deg 0.73 µg/m3
2022-08-04 17:00 17.92 µg/m3 0 µg/m3 101.98 µg/m3 19.29 µg/m3 9.6 µg/m3 30.36 °C 60.46 % 1,006.98 mbar 2.26 m/s 163.45 Deg 1.86 µg/m3
2022-08-04 16:00 7.94 µg/m3 0 µg/m3 124.53 µg/m3 13.95 µg/m3 9.68 µg/m3 30.31 °C 65.54 % 1,006.93 mbar 2.54 m/s 166.77 Deg 0.93 µg/m3
2022-08-04 15:00 2.3 µg/m3 0 µg/m3 117.6 µg/m3 15.22 µg/m3 15.1 µg/m3 30.4 °C 63.48 % 1,007.21 mbar 2.3 m/s 226.15 Deg 0.6 µg/m3
2022-08-04 14:00 2.43 µg/m3 0 µg/m3 116.91 µg/m3 23.55 µg/m3 8.09 µg/m3 29.94 °C 68.02 % 1,007.51 mbar 2.96 m/s 149.22 Deg 0.62 µg/m3
2022-08-04 13:00 2.68 µg/m3 0 µg/m3 113.98 µg/m3 18.54 µg/m3 11.81 µg/m3 29.93 °C 69.61 % 1,007.85 mbar 3.02 m/s 164.52 Deg 0.63 µg/m3
2022-08-04 12:00 3.1 µg/m3 0 µg/m3 112.7 µg/m3 22.6 µg/m3 9.39 µg/m3 29.59 °C 70.6 % 1,008.08 mbar 3.41 m/s 165.83 Deg 0.91 µg/m3
2022-08-04 11:00 6.9 µg/m3 0 µg/m3 103.43 µg/m3 36.58 µg/m3 11.76 µg/m3 30.2 °C 66.05 % 1,008.08 mbar 2.44 m/s 212.82 Deg 1.93 µg/m3
2022-08-04 10:00 12.19 µg/m3 0 µg/m3 92.04 µg/m3 39.69 µg/m3 11.82 µg/m3 29.54 °C 68.37 % 1,007.90 mbar 2.47 m/s 179.18 Deg 4.43 µg/m3
2022-08-04 09:00 11.56 µg/m3 0 µg/m3 82.44 µg/m3 55.56 µg/m3 19.65 µg/m3 28.74 °C 72.49 % 1,007.62 mbar 2.75 m/s 26.53 Deg 2.19 µg/m3
2022-08-04 08:00 21.64 µg/m3 0 µg/m3 64.15 µg/m3 48.96 µg/m3 17.44 µg/m3 28.15 °C 73.76 % 1,007.27 mbar 2.44 m/s 28.25 Deg 4.36 µg/m3
2022-08-04 07:00 45.94 µg/m3 0 µg/m3 34.45 µg/m3 42.75 µg/m3 12.39 µg/m3 27.48 °C 74.65 % 1,006.97 mbar 1.38 m/s 22.15 Deg 9.41 µg/m3
2022-08-04 06:00 63.09 µg/m3 0 µg/m3 9.51 µg/m3 35.41 µg/m3 11.2 µg/m3 26.48 °C 80.01 % 1,006.72 mbar 1.29 m/s 262.95 Deg 16.54 µg/m3
2022-08-04 05:00 35.3 µg/m3 0 µg/m3 27.66 µg/m3 15.54 µg/m3 11.43 µg/m3 26.35 °C 78.05 % 1,006.50 mbar 1.12 m/s 346.6 Deg 4.52 µg/m3
2022-08-04 04:00 11.74 µg/m3 0 µg/m3 66.1 µg/m3 9.63 µg/m3 7.55 µg/m3 26.62 °C 77.07 % 1,006.59 mbar 0.56 m/s 350.45 Deg 0.73 µg/m3
2022-08-04 03:00 6.96 µg/m3 0 µg/m3 71.03 µg/m3 13.79 µg/m3 7.61 µg/m3 26.85 °C 76.29 % 1,006.65 mbar 0.8 m/s 15.85 Deg 0.7 µg/m3
2022-08-04 02:00 4.56 µg/m3 0 µg/m3 73.25 µg/m3 17.9 µg/m3 11.69 µg/m3 26.87 °C 74.74 % 1,006.98 mbar 0.55 m/s 29.41 Deg 0.59 µg/m3
2022-08-04 01:00 5.02 µg/m3 0 µg/m3 76.87 µg/m3 23.44 µg/m3 7.8 µg/m3 27.02 °C 73.29 % 1,007.10 mbar 0.62 m/s 26.56 Deg 0.6 µg/m3
2022-08-04 00:00 3.2 µg/m3 0 µg/m3 82.43 µg/m3 28.62 µg/m3 9.65 µg/m3 26.98 °C 75.71 % 1,007.21 mbar 0.72 m/s 86.6 Deg 0.59 µg/m3
2022-08-03 23:00 8.43 µg/m3 0 µg/m3 74.21 µg/m3 20.75 µg/m3 12.21 µg/m3 27.18 °C 76.9 % 1,007.03 mbar 0.89 m/s 23.75 Deg 0.86 µg/m3
2022-08-03 22:00 11.48 µg/m3 0 µg/m3 74.66 µg/m3 27.01 µg/m3 14.21 µg/m3 27.42 °C 75.92 % 1,006.95 mbar 1.33 m/s 117.22 Deg 0.88 µg/m3
2022-08-03 21:00 10.6 µg/m3 0 µg/m3 75.49 µg/m3 27.02 µg/m3 14.3 µg/m3 27.6 °C 74.32 % 1,006.82 mbar 1.22 m/s 33.57 Deg 0.71 µg/m3
2022-08-03 20:00 9.64 µg/m3 0 µg/m3 84.53 µg/m3 32.66 µg/m3 12.43 µg/m3 27.92 °C 74.35 % 1,006.40 mbar 1.71 m/s 104.49 Deg 1.29 µg/m3
2022-08-03 19:00 6.69 µg/m3 0 µg/m3 91.51 µg/m3 29.73 µg/m3 8.81 µg/m3 28.32 °C 73.55 % 1,006.09 mbar 1.95 m/s 161.52 Deg 1.2 µg/m3
2022-08-03 18:00 5.73 µg/m3 0 µg/m3 90.82 µg/m3 17.36 µg/m3 5.84 µg/m3 29.16 °C 67.71 % 1,005.83 mbar 1.95 m/s 186.37 Deg 1.13 µg/m3
2022-08-03 17:00 5.49 µg/m3 0 µg/m3 97.72 µg/m3 16.4 µg/m3 7.87 µg/m3 29.8 °C 62.05 % 1,005.79 mbar 2.3 m/s 119.33 Deg 0.85 µg/m3
2022-08-03 16:00 3.61 µg/m3 0 µg/m3 95.15 µg/m3 10.31 µg/m3 4.91 µg/m3 30.29 °C 54.09 % 1,005.83 mbar 2.83 m/s 160.85 Deg 0.79 µg/m3
2022-08-03 15:00 3.48 µg/m3 0 µg/m3 92.62 µg/m3 8.79 µg/m3 5.85 µg/m3 30.7 °C 55.13 % 1,006.01 mbar 2.59 m/s 214.25 Deg 0.79 µg/m3
2022-08-03 14:00 4.02 µg/m3 0 µg/m3 88.56 µg/m3 12.27 µg/m3 5.67 µg/m3 30.49 °C 58.19 % 1,006.44 mbar 3.04 m/s 179 Deg 0.88 µg/m3
2022-08-03 13:00 4.13 µg/m3 0 µg/m3 85.38 µg/m3 18.74 µg/m3 6.27 µg/m3 29.93 °C 66.4 % 1,006.71 mbar 3.06 m/s 323.55 Deg 1.16 µg/m3
2022-08-03 12:00 2.06 µg/m3 0 µg/m3 87.23 µg/m3 31.85 µg/m3 8.42 µg/m3 30.06 °C 64.08 % 1,006.98 mbar 2.94 m/s 101.68 Deg 0.62 µg/m3
2022-08-03 11:00 0 µg/m3 0 µg/m3 0 µg/m3 53.24 µg/m3 12.04 µg/m3 30.02 °C 64.13 % 1,007.17 mbar 3.34 m/s 314.53 Deg 0 µg/m3
2022-08-03 10:00 0 µg/m3 0 µg/m3 0 µg/m3 28.32 µg/m3 7.11 µg/m3 29.5 °C 64.81 % 1,007.06 mbar 3.7 m/s 34.45 Deg 0 µg/m3
2022-08-03 09:00 0 µg/m3 0 µg/m3 0 µg/m3 25.78 µg/m3 9.9 µg/m3 29.64 °C 59.87 % 1,006.80 mbar 3 m/s 25.56 Deg 0 µg/m3
2022-08-03 08:00 0 µg/m3 0 µg/m3 0 µg/m3 43.31 µg/m3 14.24 µg/m3 28.52 °C 72.22 % 1,006.62 mbar 3.08 m/s 31.33 Deg 0 µg/m3
2022-08-03 07:00 126.31 µg/m3 0.27 µg/m3 25.27 µg/m3 33.07 µg/m3 8.83 µg/m3 27.57 °C 84.24 % 1,006.22 mbar 2.15 m/s 98.37 Deg 5.89 µg/m3
2022-08-03 06:00 22.18 µg/m3 3.62 µg/m3 22.29 µg/m3 19.5 µg/m3 4.9 µg/m3 26.45 °C 88.04 % 1,005.78 mbar 1.65 m/s 349.7 Deg 3.41 µg/m3
2022-08-03 05:00 19.54 µg/m3 0.16 µg/m3 35.12 µg/m3 10.69 µg/m3 4.71 µg/m3 26.24 °C 90.03 % 1,005.42 mbar 1.9 m/s 355.25 Deg 2.88 µg/m3
2022-08-03 04:00 19.15 µg/m3 0.23 µg/m3 23.8 µg/m3 8.19 µg/m3 5.61 µg/m3 26.37 °C 86.93 % 1,005.33 mbar 1.47 m/s 340.08 Deg 1.57 µg/m3
2022-08-03 03:00 20.65 µg/m3 0.1 µg/m3 34.36 µg/m3 7.55 µg/m3 5.28 µg/m3 26.75 °C 86.44 % 1,005.21 mbar 1.23 m/s 347.22 Deg 1.23 µg/m3
2022-08-03 02:00 4.23 µg/m3 0.09 µg/m3 51.86 µg/m3 8.41 µg/m3 3.9 µg/m3 26.84 °C 87.58 % 1,005.57 mbar 1.82 m/s 351.72 Deg 0.76 µg/m3
2022-08-03 01:00 5.92 µg/m3 0.11 µg/m3 48.93 µg/m3 4.25 µg/m3 2.88 µg/m3 26.98 °C 86.75 % 1,005.68 mbar 1.92 m/s 354.33 Deg 0.78 µg/m3
2022-08-03 00:00 3.59 µg/m3 0.1 µg/m3 50.81 µg/m3 2.76 µg/m3 2.88 µg/m3 27.16 °C 85.33 % 1,005.86 mbar 1.3 m/s 103.4 Deg 1.07 µg/m3
2022-08-02 23:00 4.21 µg/m3 0.06 µg/m3 53.85 µg/m3 2.76 µg/m3 2.89 µg/m3 27.24 °C 87.18 % 1,006.02 mbar 1.77 m/s 23.78 Deg 1.04 µg/m3
2022-08-02 22:00 5.97 µg/m3 0.1 µg/m3 53.64 µg/m3 2.76 µg/m3 2.89 µg/m3 27.5 °C 85.84 % 1,006.03 mbar 2.08 m/s 32.53 Deg 1.08 µg/m3
2022-08-02 21:00 5.16 µg/m3 0.11 µg/m3 55.59 µg/m3 2.77 µg/m3 2.89 µg/m3 27.86 °C 82.28 % 1,005.87 mbar 2.29 m/s 23.87 Deg 1.48 µg/m3
2022-08-02 20:00 10.14 µg/m3 0.09 µg/m3 48.91 µg/m3 2.8 µg/m3 2.91 µg/m3 28.22 °C 81.44 % 1,005.34 mbar 2.48 m/s 13.3 Deg 1.96 µg/m3
2022-08-02 19:00 11.1 µg/m3 0.07 µg/m3 50.6 µg/m3 2.85 µg/m3 2.94 µg/m3 28.84 °C 79.08 % 1,005.08 mbar 2.36 m/s 12.9 Deg 2.11 µg/m3
2022-08-02 18:00 9.1 µg/m3 0.04 µg/m3 55.9 µg/m3 2.96 µg/m3 3.01 µg/m3 29.53 °C 74.27 % 1,004.82 mbar 2.86 m/s 11.85 Deg 2.02 µg/m3
2022-08-02 17:00 7.6 µg/m3 0.05 µg/m3 55 µg/m3 3.17 µg/m3 3.13 µg/m3 30.2 °C 69.43 % 1,004.80 mbar 2.91 m/s 93.77 Deg 2.03 µg/m3
2022-08-02 16:00 5.9 µg/m3 0.06 µg/m3 49.12 µg/m3 3.58 µg/m3 3.38 µg/m3 30.81 °C 66.34 % 1,004.77 mbar 2.23 m/s 270.35 Deg 1.88 µg/m3
2022-08-02 15:00 2.71 µg/m3 0.01 µg/m3 49.24 µg/m3 4.4 µg/m3 3.87 µg/m3 30.32 °C 67.57 % 1,004.98 mbar 3.3 m/s 228.52 Deg 1.09 µg/m3
2022-08-02 14:00 2.24 µg/m3 0.05 µg/m3 52.45 µg/m3 6.05 µg/m3 4.87 µg/m3 30.06 °C 67.9 % 1,005.28 mbar 4.09 m/s 189.83 Deg 1.18 µg/m3
2022-08-02 13:00 3.71 µg/m3 0.05 µg/m3 52.62 µg/m3 9.34 µg/m3 6.85 µg/m3 29.27 °C 71.3 % 1,005.46 mbar 4.59 m/s 161.23 Deg 1.37 µg/m3
2022-08-02 12:00 5.8 µg/m3 0.05 µg/m3 51.98 µg/m3 15.94 µg/m3 10.82 µg/m3 28.85 °C 74.63 % 1,005.66 mbar 4.34 m/s 150.7 Deg 1.82 µg/m3
2022-08-02 11:00 11.49 µg/m3 0.06 µg/m3 54.58 µg/m3 29.14 µg/m3 18.76 µg/m3 28.19 °C 81.19 % 1,006.08 mbar 2.67 m/s 155.88 Deg 2.16 µg/m3
2022-08-02 10:00 10.03 µg/m3 0.07 µg/m3 67.22 µg/m3 55.52 µg/m3 34.64 µg/m3 28.01 °C 81.24 % 1,005.98 mbar 2.27 m/s 167.93 Deg 1.41 µg/m3
2022-08-02 09:00 20.39 µg/m3 0.13 µg/m3 54.76 µg/m3 104.09 µg/m3 66.4 µg/m3 28.48 °C 75.7 % 1,005.79 mbar 1.16 m/s 204.37 Deg 3.77 µg/m3
2022-08-02 08:00 26.68 µg/m3 0.21 µg/m3 84.15 µg/m3 90.94 µg/m3 28.3 µg/m3 28.19 °C 74.89 % 1,005.80 mbar 1.25 m/s 241.62 Deg 5.04 µg/m3
2022-08-02 07:00 33.52 µg/m3 0.14 µg/m3 45.8 µg/m3 46.22 µg/m3 13.3 µg/m3 27.55 °C 83.53 % 1,005.60 mbar 0.76 m/s 317.53 Deg 5.22 µg/m3
2022-08-02 06:00 9.99 µg/m3 0.06 µg/m3 60.85 µg/m3 24.89 µg/m3 11.34 µg/m3 26.62 °C 87.43 % 1,005.42 mbar 0.32 m/s 138.63 Deg 1.33 µg/m3
2022-08-02 05:00 8.16 µg/m3 0.08 µg/m3 59.33 µg/m3 22.44 µg/m3 9.35 µg/m3 26.44 °C 88.94 % 1,005.13 mbar 0.39 m/s 122.49 Deg 0.76 µg/m3
2022-08-02 04:00 6.64 µg/m3 0.2 µg/m3 61.79 µg/m3 23.49 µg/m3 13.34 µg/m3 26.78 °C 87.6 % 1,005.07 mbar 0.55 m/s 243.89 Deg 0.71 µg/m3
2022-08-02 03:00 5.09 µg/m3 0.07 µg/m3 61.53 µg/m3 23.35 µg/m3 6.29 µg/m3 26.76 °C 89.75 % 1,005.24 mbar 0.72 m/s 242.12 Deg 0.72 µg/m3
2022-08-02 02:00 3.07 µg/m3 0.06 µg/m3 61.52 µg/m3 23.02 µg/m3 7.56 µg/m3 26.95 °C 88.83 % 1,005.39 mbar 0.5 m/s 198.16 Deg 0.81 µg/m3
2022-08-02 01:00 4.38 µg/m3 0.05 µg/m3 71.44 µg/m3 23.78 µg/m3 10.8 µg/m3 27.38 °C 85.76 % 1,005.68 mbar 1.4 m/s 296.77 Deg 0.74 µg/m3
2022-08-02 00:00 3.83 µg/m3 0.03 µg/m3 74.63 µg/m3 27.98 µg/m3 16.08 µg/m3 27.63 °C 83.28 % 1,005.89 mbar 1.41 m/s 306.92 Deg 0.71 µg/m3
2022-08-01 23:00 5.06 µg/m3 0.02 µg/m3 74.31 µg/m3 24.54 µg/m3 12.36 µg/m3 27.73 °C 83.39 % 1,006.09 mbar 1.54 m/s 300.68 Deg 0.73 µg/m3
2022-08-01 22:00 5.87 µg/m3 0.03 µg/m3 73.97 µg/m3 16.95 µg/m3 6.89 µg/m3 28.06 °C 80.34 % 1,006.12 mbar 1.52 m/s 293.28 Deg 0.75 µg/m3
2022-08-01 21:00 6.29 µg/m3 0.04 µg/m3 75.64 µg/m3 9.22 µg/m3 7.97 µg/m3 28.33 °C 77.57 % 1,005.56 mbar 2.05 m/s 295.35 Deg 0.86 µg/m3
2022-08-01 20:00 6.65 µg/m3 0.03 µg/m3 68.43 µg/m3 8.53 µg/m3 8.25 µg/m3 28.59 °C 75.85 % 1,005.11 mbar 2.03 m/s 293.12 Deg 0.93 µg/m3
2022-08-01 19:00 7.42 µg/m3 0.02 µg/m3 64.21 µg/m3 7.39 µg/m3 5.46 µg/m3 29.07 °C 74.33 % 1,004.72 mbar 1.94 m/s 256.62 Deg 1 µg/m3
2022-08-01 18:00 4.38 µg/m3 0.06 µg/m3 68.36 µg/m3 8.85 µg/m3 4.62 µg/m3 29.56 °C 68.62 % 1,004.44 mbar 2.87 m/s 228.82 Deg 1.08 µg/m3
2022-08-01 17:00 2.73 µg/m3 0.05 µg/m3 75.52 µg/m3 8.43 µg/m3 4.86 µg/m3 29.93 °C 66.35 % 1,004.56 mbar 3.04 m/s 210.87 Deg 1.03 µg/m3
2022-08-01 16:00 4.46 µg/m3 0.04 µg/m3 77.27 µg/m3 9.39 µg/m3 3.15 µg/m3 29.68 °C 71.82 % 1,004.69 mbar 4.08 m/s 165.67 Deg 1.24 µg/m3
2022-08-01 15:00 3.98 µg/m3 0.01 µg/m3 82.41 µg/m3 10.76 µg/m3 3.42 µg/m3 29.64 °C 69.99 % 1,004.86 mbar 4.02 m/s 163.93 Deg 1.15 µg/m3
2022-08-01 14:00 4.95 µg/m3 0.01 µg/m3 91.34 µg/m3 10.5 µg/m3 3.95 µg/m3 29.9 °C 68.8 % 1,005.11 mbar 3.32 m/s 160.75 Deg 1.16 µg/m3
2022-08-01 13:00 1.72 µg/m3 0.03 µg/m3 94.71 µg/m3 12.17 µg/m3 5.02 µg/m3 29.65 °C 71.62 % 1,005.54 mbar 3.38 m/s 171.35 Deg 0.68 µg/m3
2022-08-01 12:00 1.52 µg/m3 0.03 µg/m3 90.76 µg/m3 20.32 µg/m3 7.16 µg/m3 29.48 °C 73.66 % 1,005.88 mbar 3.33 m/s 200.55 Deg 0.73 µg/m3
2022-08-01 11:00 1.75 µg/m3 0.07 µg/m3 87.43 µg/m3 24.29 µg/m3 6.88 µg/m3 29.39 °C 73.87 % 1,005.83 mbar 3.85 m/s 137.03 Deg 0.68 µg/m3
2022-08-01 10:00 4.64 µg/m3 0.05 µg/m3 85.98 µg/m3 32.62 µg/m3 7.27 µg/m3 29.69 °C 73.09 % 1,005.74 mbar 2.14 m/s 200.95 Deg 1.15 µg/m3
2022-08-01 09:00 4.02 µg/m3 0.01 µg/m3 85 µg/m3 37.64 µg/m3 10.84 µg/m3 28.85 °C 77.69 % 1,005.57 mbar 2.76 m/s 212.83 Deg 1.02 µg/m3
2022-08-01 08:00 7.71 µg/m3 0.03 µg/m3 71.76 µg/m3 27.5 µg/m3 15.55 µg/m3 28.45 °C 80.97 % 1,005.42 mbar 1.81 m/s 241.52 Deg 1.62 µg/m3
2022-08-01 07:00 6.07 µg/m3 0.04 µg/m3 75.75 µg/m3 38.52 µg/m3 14.44 µg/m3 27.52 °C 87.93 % 1,005.27 mbar 1.57 m/s 212.25 Deg 1.44 µg/m3
2022-08-01 06:00 3.6 µg/m3 0.05 µg/m3 75.36 µg/m3 31.1 µg/m3 18.48 µg/m3 26.42 °C 95.28 % 1,005.01 mbar 0.93 m/s 233.63 Deg 0.67 µg/m3
2022-08-01 05:00 3.56 µg/m3 0.03 µg/m3 74.55 µg/m3 33.06 µg/m3 10.71 µg/m3 26.33 °C 96.02 % 1,004.87 mbar 1.19 m/s 241.03 Deg 0.7 µg/m3
2022-08-01 04:00 5.22 µg/m3 0.11 µg/m3 69.66 µg/m3 30.94 µg/m3 7.36 µg/m3 26.66 °C 94.41 % 1,004.76 mbar 1.38 m/s 140.15 Deg 0.74 µg/m3
2022-08-01 03:00 3.87 µg/m3 0.07 µg/m3 80.37 µg/m3 27.29 µg/m3 10.01 µg/m3 26.96 °C 92.74 % 1,004.75 mbar 1.94 m/s 197.82 Deg 0.68 µg/m3
2022-08-01 02:00 4.75 µg/m3 0.06 µg/m3 79 µg/m3 33.74 µg/m3 15.37 µg/m3 27.11 °C 92.32 % 1,004.79 mbar 1.73 m/s 221.48 Deg 0.74 µg/m3
2022-08-01 01:00 2.84 µg/m3 0.07 µg/m3 83.25 µg/m3 44.41 µg/m3 20.11 µg/m3 27.36 °C 92.48 % 1,005.01 mbar 1.16 m/s 35.77 Deg 0.66 µg/m3
2022-08-01 00:00 1.44 µg/m3 0.02 µg/m3 86.19 µg/m3 54.22 µg/m3 18.16 µg/m3 27.47 °C 89.96 % 1,005.28 mbar 0.42 m/s 144.1 Deg 0.61 µg/m3
2022-07-31 23:00 2.56 µg/m3 0.05 µg/m3 85.69 µg/m3 42.31 µg/m3 14.04 µg/m3 27.41 °C 89.08 % 1,005.38 mbar 0.71 m/s 228.5 Deg 0.62 µg/m3
2022-07-31 22:00 6.8 µg/m3 0.03 µg/m3 80.65 µg/m3 14.99 µg/m3 14.49 µg/m3 27.88 °C 85.77 % 1,005.41 mbar 1.21 m/s 195.38 Deg 1.41 µg/m3
2022-07-31 21:00 4.98 µg/m3 0.03 µg/m3 81.82 µg/m3 6.4 µg/m3 10.93 µg/m3 28.14 °C 83.3 % 1,005.15 mbar 1.41 m/s 111.05 Deg 0.83 µg/m3
2022-07-31 20:00 11.4 µg/m3 0.03 µg/m3 72.85 µg/m3 6.85 µg/m3 8.94 µg/m3 29.09 °C 76.04 % 1,004.60 mbar 1.96 m/s 186.98 Deg 1.09 µg/m3
2022-07-31 19:00 14.53 µg/m3 0.02 µg/m3 78.03 µg/m3 7.99 µg/m3 10.86 µg/m3 29.73 °C 71.6 % 1,004.36 mbar 2.43 m/s 316.57 Deg 1.62 µg/m3
2022-07-31 18:00 3.09 µg/m3 0.05 µg/m3 80.79 µg/m3 6.93 µg/m3 15.63 µg/m3 29.89 °C 66.86 % 1,004.36 mbar 3.01 m/s 204.23 Deg 0.77 µg/m3
2022-07-31 17:00 3.98 µg/m3 0.03 µg/m3 87.1 µg/m3 4.89 µg/m3 11.33 µg/m3 29.59 °C 75.67 % 1,004.71 mbar 3.69 m/s 175.45 Deg 0.97 µg/m3
2022-07-31 16:00 2.74 µg/m3 0.03 µg/m3 97.15 µg/m3 5.56 µg/m3 5.86 µg/m3 29.86 °C 73.66 % 1,005.00 mbar 3.69 m/s 158.43 Deg 0.75 µg/m3
2022-07-31 15:00 1.37 µg/m3 0.02 µg/m3 96.66 µg/m3 8.37 µg/m3 5.04 µg/m3 30.05 °C 72.4 % 1,005.32 mbar 3.11 m/s 177 Deg 0.59 µg/m3
2022-07-31 14:00 1.36 µg/m3 0.03 µg/m3 92.1 µg/m3 14 µg/m3 4.77 µg/m3 30.15 °C 70.66 % 1,005.81 mbar 3.21 m/s 139.32 Deg 0.59 µg/m3
2022-07-31 13:00 2.41 µg/m3 0.04 µg/m3 88.29 µg/m3 25.24 µg/m3 5.89 µg/m3 31.03 °C 63.72 % 1,006.08 mbar 3.02 m/s 149.72 Deg 0.72 µg/m3
2022-07-31 12:00 3.02 µg/m3 0.07 µg/m3 88.91 µg/m3 47.74 µg/m3 6.13 µg/m3 31.28 °C 60.35 % 1,006.21 mbar 1.83 m/s 270.47 Deg 0.71 µg/m3
2022-07-31 11:00 3.77 µg/m3 0.03 µg/m3 87.8 µg/m3 86.55 µg/m3 8.1 µg/m3 30.43 °C 69.59 % 1,006.35 mbar 2.21 m/s 286.25 Deg 1 µg/m3
2022-07-31 10:00 5.36 µg/m3 0.02 µg/m3 79.64 µg/m3 61.22 µg/m3 11.86 µg/m3 30.18 °C 71.68 % 1,006.36 mbar 2.33 m/s 187.32 Deg 1.29 µg/m3
2022-07-31 09:00 7.69 µg/m3 0.05 µg/m3 73.1 µg/m3 62.84 µg/m3 17.48 µg/m3 29.84 °C 72.69 % 1,006.09 mbar 2.29 m/s 15.42 Deg 1.99 µg/m3
2022-07-31 08:00 10.92 µg/m3 0.14 µg/m3 66.52 µg/m3 58.23 µg/m3 21.59 µg/m3 28.95 °C 80.73 % 1,005.73 mbar 2.74 m/s 97.67 Deg 2.63 µg/m3
2022-07-31 07:00 15.67 µg/m3 0.07 µg/m3 51.03 µg/m3 58.31 µg/m3 17.69 µg/m3 28.01 °C 86.89 % 1,005.40 mbar 3.49 m/s 268.77 Deg 2.92 µg/m3
2022-07-31 06:00 16.98 µg/m3 0.07 µg/m3 45.28 µg/m3 36.22 µg/m3 11.79 µg/m3 27.46 °C 87.13 % 1,004.97 mbar 3.66 m/s 346.77 Deg 1.83 µg/m3
2022-07-31 05:00 9.68 µg/m3 0.09 µg/m3 56.21 µg/m3 28.1 µg/m3 8.75 µg/m3 27.68 °C 82.63 % 1,004.67 mbar 3.78 m/s 341 Deg 0.98 µg/m3
2022-07-31 04:00 6.09 µg/m3 0.09 µg/m3 58.07 µg/m3 21.92 µg/m3 6.62 µg/m3 27.81 °C 80.54 % 1,004.77 mbar 2.84 m/s 327.3 Deg 0.92 µg/m3
2022-07-31 03:00 5.27 µg/m3 0.01 µg/m3 59.86 µg/m3 14.45 µg/m3 7.03 µg/m3 27.95 °C 79.44 % 1,005.02 mbar 2.71 m/s 313.83 Deg 0.81 µg/m3
2022-07-31 02:00 4.33 µg/m3 0.03 µg/m3 62.39 µg/m3 16.83 µg/m3 10.26 µg/m3 28.07 °C 79.13 % 1,005.32 mbar 3.16 m/s 312.52 Deg 0.94 µg/m3
2022-07-31 01:00 5.16 µg/m3 0.01 µg/m3 64.58 µg/m3 22.67 µg/m3 12.38 µg/m3 28.17 °C 78.55 % 1,005.92 mbar 2.76 m/s 310.47 Deg 0.98 µg/m3
2022-07-31 00:00 8.1 µg/m3 0.05 µg/m3 58.82 µg/m3 33.8 µg/m3 17.78 µg/m3 28.18 °C 80.69 % 1,006.39 mbar 2.87 m/s 292.17 Deg 1.03 µg/m3
2022-07-30 23:00 7.68 µg/m3 0.05 µg/m3 50.35 µg/m3 56.74 µg/m3 30.2 µg/m3 28.13 °C 85.21 % 1,006.73 mbar 1.97 m/s 287.78 Deg 1.1 µg/m3
2022-07-30 22:00 8.32 µg/m3 0.05 µg/m3 49.25 µg/m3 50.38 µg/m3 33.77 µg/m3 28.16 °C 89.06 % 1,006.80 mbar 1.92 m/s 288.65 Deg 1.5 µg/m3
2022-07-30 21:00 9.52 µg/m3 0.11 µg/m3 49.62 µg/m3 58.44 µg/m3 22.82 µg/m3 28.67 °C 85.18 % 1,006.67 mbar 2.37 m/s 293.83 Deg 2.15 µg/m3
2022-07-30 20:00 12.29 µg/m3 0.11 µg/m3 45.81 µg/m3 35.07 µg/m3 13.58 µg/m3 29.51 °C 75.62 % 1,006.37 mbar 2.39 m/s 302.63 Deg 2.39 µg/m3
2022-07-30 19:00 10.4 µg/m3 0.14 µg/m3 50.35 µg/m3 22.36 µg/m3 6.15 µg/m3 30.87 °C 61.67 % 1,005.99 mbar 2.76 m/s 313.33 Deg 1.95 µg/m3
2022-07-30 18:00 8.41 µg/m3 0.12 µg/m3 54.53 µg/m3 30.45 µg/m3 5.6 µg/m3 32.33 °C 52.79 % 1,005.65 mbar 2.59 m/s 311.17 Deg 1.66 µg/m3
2022-07-30 17:00 5.46 µg/m3 0.12 µg/m3 52.69 µg/m3 17.36 µg/m3 6.26 µg/m3 32.64 °C 55.05 % 1,005.60 mbar 2.89 m/s 284 Deg 1.45 µg/m3
2022-07-30 16:00 5.94 µg/m3 0.13 µg/m3 52.64 µg/m3 17.96 µg/m3 5.57 µg/m3 33.16 °C 54.12 % 1,005.96 mbar 3.01 m/s 293.95 Deg 1.62 µg/m3
2022-07-30 15:00 5.17 µg/m3 0.12 µg/m3 58.64 µg/m3 27.12 µg/m3 6.21 µg/m3 33.73 °C 52.19 % 1,006.18 mbar 2.59 m/s 289.88 Deg 1.31 µg/m3
2022-07-30 14:00 7.04 µg/m3 0.08 µg/m3 70.01 µg/m3 44.96 µg/m3 5.56 µg/m3 33.38 °C 55.39 % 1,006.42 mbar 2 m/s 205.3 Deg 1.26 µg/m3
2022-07-30 13:00 6.96 µg/m3 0.1 µg/m3 72.6 µg/m3 42.3 µg/m3 6.76 µg/m3 32.35 °C 63.68 % 1,006.57 mbar 2.62 m/s 182.78 Deg 1.56 µg/m3
2022-07-30 12:00 15.94 µg/m3 0.11 µg/m3 65.82 µg/m3 62.13 µg/m3 6.67 µg/m3 32.97 °C 61.22 % 1,006.76 mbar 1.4 m/s 268.5 Deg 3.57 µg/m3
2022-07-30 11:00 16.03 µg/m3 0.13 µg/m3 62.5 µg/m3 44.55 µg/m3 6.47 µg/m3 31.74 °C 64.1 % 1,007.01 mbar 2.67 m/s 13.67 Deg 4.3 µg/m3
2022-07-30 10:00 19.31 µg/m3 0.12 µg/m3 56.47 µg/m3 27.53 µg/m3 7.69 µg/m3 32.09 °C 52.79 % 1,006.94 mbar 2.6 m/s 177.85 Deg 4.42 µg/m3
2022-07-30 09:00 19.16 µg/m3 0.12 µg/m3 54.53 µg/m3 35.42 µg/m3 9.07 µg/m3 31.3 °C 53.62 % 1,006.82 mbar 1.95 m/s 327.57 Deg 3.97 µg/m3
2022-07-30 08:00 17.54 µg/m3 0.14 µg/m3 53.69 µg/m3 57.24 µg/m3 14.23 µg/m3 29.6 °C 68.78 % 1,006.72 mbar 2.01 m/s 320.85 Deg 5.65 µg/m3
2022-07-30 07:00 27.74 µg/m3 0.11 µg/m3 34.8 µg/m3 59.05 µg/m3 20.92 µg/m3 27.96 °C 81.84 % 1,006.73 mbar 1.5 m/s 324.83 Deg 6.85 µg/m3
2022-07-30 06:00 21.95 µg/m3 0.08 µg/m3 34.76 µg/m3 43.5 µg/m3 24.54 µg/m3 26.84 °C 89.22 % 1,006.32 mbar 1.43 m/s 314.68 Deg 3.66 µg/m3
2022-07-30 05:00 10.65 µg/m3 0.07 µg/m3 42.38 µg/m3 47.17 µg/m3 16.65 µg/m3 26.79 °C 89.05 % 1,006.06 mbar 1.32 m/s 319.13 Deg 1.24 µg/m3
2022-07-30 04:00 8.56 µg/m3 0.16 µg/m3 41.07 µg/m3 50.58 µg/m3 14.7 µg/m3 27.33 °C 80.8 % 1,006.13 mbar 1.12 m/s 321.65 Deg 0.9 µg/m3
2022-07-30 03:00 8.1 µg/m3 0.1 µg/m3 43.5 µg/m3 30.83 µg/m3 14.49 µg/m3 27.58 °C 72.97 % 1,006.29 mbar 0.91 m/s 323.43 Deg 0.84 µg/m3
2022-07-30 02:00 10.97 µg/m3 0.11 µg/m3 44.76 µg/m3 29.51 µg/m3 9.64 µg/m3 28.04 °C 65.63 % 1,006.67 mbar 1.12 m/s 321.12 Deg 0.91 µg/m3
2022-07-30 01:00 15.46 µg/m3 0.11 µg/m3 42.98 µg/m3 50.75 µg/m3 7.38 µg/m3 28.49 °C 64.58 % 1,007.07 mbar 1.01 m/s 323.42 Deg 2.13 µg/m3
2022-07-30 00:00 19.15 µg/m3 0.18 µg/m3 33.71 µg/m3 21.96 µg/m3 7.94 µg/m3 28.9 °C 60.45 % 1,007.52 mbar 0.76 m/s 289.2 Deg 1.96 µg/m3
2022-07-29 23:00 19.72 µg/m3 0.14 µg/m3 36.1 µg/m3 10.06 µg/m3 11.84 µg/m3 29.2 °C 58.93 % 1,007.50 mbar 0.81 m/s 248.59 Deg 1.28 µg/m3
2022-07-29 22:00 25.07 µg/m3 0.11 µg/m3 36.29 µg/m3 13.57 µg/m3 7.5 µg/m3 29.89 °C 59.28 % 1,007.49 mbar 1.1 m/s 311.1 Deg 1.57 µg/m3
2022-07-29 21:00 22.39 µg/m3 0.09 µg/m3 54 µg/m3 21.89 µg/m3 8.72 µg/m3 29.87 °C 68.43 % 1,007.27 mbar 1.07 m/s 302.28 Deg 1.27 µg/m3
2022-07-29 20:00 11.95 µg/m3 0.06 µg/m3 78.91 µg/m3 37.87 µg/m3 5.72 µg/m3 29.55 °C 81.71 % 1,006.84 mbar 1.17 m/s 172.44 Deg 0.86 µg/m3
2022-07-29 19:00 9.02 µg/m3 0.05 µg/m3 87.46 µg/m3 58.39 µg/m3 3 µg/m3 30.16 °C 77.8 % 1,006.61 mbar 2.18 m/s 29.45 Deg 1.02 µg/m3
2022-07-29 18:00 9.53 µg/m3 0.09 µg/m3 89.97 µg/m3 65.62 µg/m3 3.12 µg/m3 31.46 °C 69.78 % 1,006.29 mbar 1.82 m/s 20.92 Deg 1.17 µg/m3
2022-07-29 17:00 11.23 µg/m3 0.04 µg/m3 94.06 µg/m3 46.81 µg/m3 3.35 µg/m3 32.02 °C 64.62 % 1,006.35 mbar 2.14 m/s 106.02 Deg 1.68 µg/m3
2022-07-29 16:00 6.35 µg/m3 0.05 µg/m3 99.89 µg/m3 14.44 µg/m3 3.82 µg/m3 32.1 °C 65.12 % 1,006.67 mbar 2.42 m/s 179.33 Deg 1.03 µg/m3
2022-07-29 15:00 7.13 µg/m3 0.03 µg/m3 87.2 µg/m3 7.15 µg/m3 4.76 µg/m3 31.08 °C 66.31 % 1,007.01 mbar 4.01 m/s 171.13 Deg 1.5 µg/m3
2022-07-29 14:00 10.59 µg/m3 0.04 µg/m3 93.17 µg/m3 6.81 µg/m3 3.18 µg/m3 30.57 °C 66.9 % 1,007.33 mbar 3.6 m/s 154.55 Deg 1.91 µg/m3
2022-07-29 13:00 4.07 µg/m3 0.03 µg/m3 102.07 µg/m3 9.4 µg/m3 3.47 µg/m3 30.49 °C 69.99 % 1,007.40 mbar 3.04 m/s 171.65 Deg 0.91 µg/m3
2022-07-29 12:00 2.27 µg/m3 0.05 µg/m3 99.4 µg/m3 9.05 µg/m3 4.06 µg/m3 30.42 °C 69.09 % 1,007.46 mbar 3.15 m/s 180.9 Deg 0.64 µg/m3
2022-07-29 11:00 2.52 µg/m3 0.03 µg/m3 88.6 µg/m3 11.51 µg/m3 5.23 µg/m3 30.5 °C 63.71 % 1,007.53 mbar 3.22 m/s 142.45 Deg 0.75 µg/m3
2022-07-29 10:00 3.51 µg/m3 0.01 µg/m3 81.62 µg/m3 13.13 µg/m3 7.58 µg/m3 30.31 °C 61.33 % 1,007.40 mbar 2.5 m/s 188.95 Deg 0.97 µg/m3
2022-07-29 09:00 6.21 µg/m3 0.05 µg/m3 84.45 µg/m3 17.1 µg/m3 12.27 µg/m3 29.8 °C 66.89 % 1,007.29 mbar 2.13 m/s 216.53 Deg 1.62 µg/m3
2022-07-29 08:00 7.93 µg/m3 0.05 µg/m3 73.01 µg/m3 27.86 µg/m3 16.7 µg/m3 28.88 °C 81.42 % 1,006.94 mbar 1.81 m/s 228.37 Deg 2.51 µg/m3
2022-07-29 07:00 11.91 µg/m3 0.08 µg/m3 59.56 µg/m3 46.91 µg/m3 20.09 µg/m3 27.7 °C 92.82 % 1,006.62 mbar 1.42 m/s 192.02 Deg 1.88 µg/m3
2022-07-29 06:00 17.71 µg/m3 0.04 µg/m3 46.47 µg/m3 31.68 µg/m3 13.7 µg/m3 26.77 °C 99.75 % 1,006.10 mbar 1.09 m/s 49.5 Deg 1.96 µg/m3
2022-07-29 05:00 10.64 µg/m3 0.05 µg/m3 49.85 µg/m3 31.4 µg/m3 18.27 µg/m3 26.6 °C 99.91 % 1,005.62 mbar 1.87 m/s 40.68 Deg 1.23 µg/m3
2022-07-29 04:00 4.73 µg/m3 0.09 µg/m3 52.65 µg/m3 45.77 µg/m3 12.58 µg/m3 26.73 °C 99.9 % 1,005.58 mbar 1.9 m/s 39.98 Deg 0.75 µg/m3
2022-07-29 03:00 5.02 µg/m3 -0.01 µg/m3 56.63 µg/m3 46.06 µg/m3 21.69 µg/m3 26.99 °C 99.9 % 1,005.52 mbar 2.09 m/s 27.62 Deg 0.73 µg/m3
2022-07-29 02:00 1.53 µg/m3 0.04 µg/m3 64.22 µg/m3 41.85 µg/m3 20.33 µg/m3 27.16 °C 99.9 % 1,005.60 mbar 2.58 m/s 30.5 Deg 0.66 µg/m3
2022-07-29 01:00 6.54 µg/m3 0.05 µg/m3 53.32 µg/m3 33.51 µg/m3 19.55 µg/m3 27.27 °C 99.66 % 1,005.93 mbar 2.54 m/s 34.17 Deg 1.09 µg/m3
2022-07-29 00:00 9.78 µg/m3 0.06 µg/m3 53.23 µg/m3 31.03 µg/m3 27.66 µg/m3 27.37 °C 98.84 % 1,006.29 mbar 2.52 m/s 33.22 Deg 0.98 µg/m3
2022-07-28 23:00 5.67 µg/m3 0.02 µg/m3 62.58 µg/m3 29.87 µg/m3 32.13 µg/m3 27.59 °C 97.92 % 1,006.32 mbar 2.2 m/s 34.27 Deg 0.86 µg/m3
2022-07-28 22:00 4.81 µg/m3 0.01 µg/m3 70.82 µg/m3 28.65 µg/m3 37.83 µg/m3 27.76 °C 97.96 % 1,006.28 mbar 2.1 m/s 35.08 Deg 1.01 µg/m3
2022-07-28 21:00 5.68 µg/m3 0.03 µg/m3 72.63 µg/m3 17.21 µg/m3 30.7 µg/m3 28 °C 97.16 % 1,005.83 mbar 2.08 m/s 38.37 Deg 0.81 µg/m3
2022-07-28 20:00 6.86 µg/m3 0.05 µg/m3 75.58 µg/m3 18.57 µg/m3 14.06 µg/m3 28.53 °C 91.11 % 1,004.92 mbar 2.09 m/s 36.52 Deg 1.02 µg/m3
2022-07-28 19:00 8.56 µg/m3 0.05 µg/m3 72.42 µg/m3 29.84 µg/m3 20.87 µg/m3 29.52 °C 75.65 % 1,004.21 mbar 1.67 m/s 27.6 Deg 1.75 µg/m3
2022-07-28 18:00 4.46 µg/m3 0.06 µg/m3 77.13 µg/m3 52.93 µg/m3 12.66 µg/m3 29.85 °C 76.5 % 1,003.57 mbar 1.57 m/s 109.27 Deg 1.03 µg/m3
2022-07-28 17:00 5.28 µg/m3 0.07 µg/m3 79.88 µg/m3 46.9 µg/m3 5.78 µg/m3 30.06 °C 78.37 % 1,003.65 mbar 2.28 m/s 83.35 Deg 2.37 µg/m3
2022-07-28 16:00 2.67 µg/m3 0.05 µg/m3 86.94 µg/m3 62.43 µg/m3 5.64 µg/m3 30.24 °C 76.14 % 1,003.74 mbar 2.69 m/s 202.07 Deg 0.93 µg/m3
2022-07-28 15:00 2.63 µg/m3 0.06 µg/m3 94.23 µg/m3 39.73 µg/m3 7.09 µg/m3 30.22 °C 79.18 % 1,003.81 mbar 2.62 m/s 288.32 Deg 0.85 µg/m3
2022-07-28 14:00 2.47 µg/m3 0.06 µg/m3 89.37 µg/m3 39.87 µg/m3 6.72 µg/m3 29.9 °C 78.76 % 1,004.02 mbar 2.96 m/s 299.22 Deg 0.88 µg/m3
2022-07-28 13:00 3.22 µg/m3 0.03 µg/m3 93.62 µg/m3 38.42 µg/m3 8.38 µg/m3 29.66 °C 79.83 % 1,004.21 mbar 3.03 m/s 226.42 Deg 0.95 µg/m3
2022-07-28 12:00 6.38 µg/m3 0.04 µg/m3 89.36 µg/m3 56.94 µg/m3 11.52 µg/m3 29.6 °C 78.47 % 1,004.30 mbar 2.72 m/s 298.65 Deg 1.67 µg/m3
2022-07-28 11:00 1.98 µg/m3 0.03 µg/m3 90.13 µg/m3 66.96 µg/m3 11.81 µg/m3 29.02 °C 84.98 % 1,004.09 mbar 3.23 m/s 180.43 Deg 0.72 µg/m3
2022-07-28 10:00 3.92 µg/m3 0.06 µg/m3 84.21 µg/m3 87.58 µg/m3 19.93 µg/m3 28.91 °C 85.46 % 1,003.69 mbar 2.48 m/s 186.8 Deg 1 µg/m3
2022-07-28 09:00 17.66 µg/m3 0.1 µg/m3 66.32 µg/m3 80.68 µg/m3 17.69 µg/m3 28.92 °C 84.69 % 1,003.43 mbar 1.56 m/s 132.72 Deg 3.19 µg/m3
2022-07-28 08:00 19.19 µg/m3 0.14 µg/m3 61.03 µg/m3 73.58 µg/m3 29.31 µg/m3 28.27 °C 87.08 % 1,003.06 mbar 1.31 m/s 330.14 Deg 3.86 µg/m3
2022-07-28 07:00 26.05 µg/m3 0.15 µg/m3 49.62 µg/m3 74.33 µg/m3 21.43 µg/m3 26.84 °C 95.79 % 1,002.49 mbar 1.86 m/s 284.14 Deg 4.49 µg/m3
2022-07-28 06:00 26.87 µg/m3 0.15 µg/m3 34.6 µg/m3 47.66 µg/m3 11.88 µg/m3 25.68 °C 99.76 % 1,002.12 mbar 1.2 m/s 251.17 Deg 3.29 µg/m3
2022-07-28 05:00 12.87 µg/m3 0.09 µg/m3 47.13 µg/m3 32.94 µg/m3 16.66 µg/m3 25.96 °C 97.98 % 1,001.68 mbar 1.07 m/s 246.2 Deg 1.08 µg/m3
2022-07-28 04:00 7.76 µg/m3 0.09 µg/m3 73.85 µg/m3 42.45 µg/m3 11.39 µg/m3 26.76 °C 95.43 % 1,001.87 mbar 1.85 m/s 331.92 Deg 0.7 µg/m3
2022-07-28 03:00 3.02 µg/m3 0.03 µg/m3 71.34 µg/m3 38.58 µg/m3 10.22 µg/m3 26.85 °C 94.89 % 1,002.40 mbar 2.14 m/s 330.47 Deg 0.69 µg/m3
2022-07-28 02:00 2.76 µg/m3 0.02 µg/m3 73.5 µg/m3 43.33 µg/m3 13.17 µg/m3 26.85 °C 93.34 % 1,002.65 mbar 1.38 m/s 295.16 Deg 0.72 µg/m3
2022-07-28 01:00 4.21 µg/m3 0.06 µg/m3 77.64 µg/m3 34.14 µg/m3 18.13 µg/m3 26.97 °C 93.76 % 1,002.82 mbar 1.83 m/s 281.22 Deg 0.78 µg/m3
2022-07-28 00:00 5.3 µg/m3 0.01 µg/m3 82.61 µg/m3 43.91 µg/m3 19.63 µg/m3 27.42 °C 90.31 % 1,003.10 mbar 1.9 m/s 291.63 Deg 0.76 µg/m3
2022-07-27 23:00 7.72 µg/m3 0.04 µg/m3 86.45 µg/m3 58.53 µg/m3 26.73 µg/m3 27.61 °C 90.88 % 1,002.90 mbar 1.5 m/s 288.87 Deg 1.03 µg/m3
2022-07-27 22:00 6.77 µg/m3 0.05 µg/m3 84.89 µg/m3 34.96 µg/m3 27.12 µg/m3 27.91 °C 91.43 % 1,002.76 mbar 2 m/s 307.47 Deg 0.97 µg/m3
2022-07-27 21:00 9.29 µg/m3 0.05 µg/m3 74.24 µg/m3 9.11 µg/m3 8.77 µg/m3 28.46 °C 86.9 % 1,002.09 mbar 2.03 m/s 290.63 Deg 0.9 µg/m3
2022-07-27 20:00 11.48 µg/m3 0.03 µg/m3 74.04 µg/m3 4.04 µg/m3 6.61 µg/m3 29.26 °C 77.14 % 1,001.62 mbar 1.54 m/s 232.79 Deg 0.91 µg/m3
2022-07-27 19:00 8.57 µg/m3 0.1 µg/m3 82.35 µg/m3 5.33 µg/m3 5.57 µg/m3 30.04 °C 66.54 % 1,001.18 mbar 1.43 m/s 107.42 Deg 0.94 µg/m3
2022-07-27 18:00 10.53 µg/m3 0.07 µg/m3 78.14 µg/m3 6.26 µg/m3 4.26 µg/m3 30.75 °C 64.05 % 1,000.91 mbar 1.98 m/s 168.48 Deg 1.49 µg/m3
2022-07-27 17:00 11.3 µg/m3 0.08 µg/m3 79.22 µg/m3 4.58 µg/m3 3.06 µg/m3 30.45 °C 70.27 % 1,001.01 mbar 2.96 m/s 155.57 Deg 1.94 µg/m3
2022-07-27 16:00 10.97 µg/m3 0.05 µg/m3 88.2 µg/m3 4.88 µg/m3 3.25 µg/m3 30.46 °C 73.98 % 1,001.29 mbar 3.74 m/s 158.42 Deg 2.05 µg/m3
2022-07-27 15:00 9.93 µg/m3 0.06 µg/m3 88.68 µg/m3 7.01 µg/m3 3.61 µg/m3 30.87 °C 70.04 % 1,001.79 mbar 4.25 m/s 172.18 Deg 1.91 µg/m3
2022-07-27 14:00 6.36 µg/m3 0.09 µg/m3 87.01 µg/m3 11.27 µg/m3 4.34 µg/m3 32.7 °C 51.84 % 1,002.12 mbar 2.2 m/s 154.05 Deg 1.59 µg/m3
2022-07-27 13:00 6.22 µg/m3 0.07 µg/m3 84.71 µg/m3 19.79 µg/m3 5.8 µg/m3 32 °C 51.44 % 1,002.36 mbar 2.84 m/s 25.75 Deg 1.5 µg/m3
2022-07-27 12:00 7.04 µg/m3 0.04 µg/m3 77.65 µg/m3 36.84 µg/m3 8.7 µg/m3 31.56 °C 54.39 % 1,002.66 mbar 2.51 m/s 98.53 Deg 1.97 µg/m3
2022-07-27 11:00 5.09 µg/m3 0.05 µg/m3 75.45 µg/m3 70.11 µg/m3 13.69 µg/m3 29.8 °C 74.31 % 1,002.82 mbar 2.51 m/s 178.62 Deg 1.79 µg/m3
2022-07-27 10:00 7.22 µg/m3 0.08 µg/m3 70.58 µg/m3 121.12 µg/m3 20.54 µg/m3 29 °C 85.5 % 1,002.56 mbar 2.56 m/s 23.65 Deg 2.32 µg/m3
2022-07-27 09:00 16.22 µg/m3 0.18 µg/m3 63.55 µg/m3 114.35 µg/m3 30.9 µg/m3 28.53 °C 89.21 % 1,002.33 mbar 2.23 m/s 21.87 Deg 15.21 µg/m3
2022-07-27 08:00 20.76 µg/m3 0.16 µg/m3 50.37 µg/m3 97.37 µg/m3 32.03 µg/m3 28.1 °C 91.68 % 1,001.99 mbar 1.81 m/s 95.4 Deg 8.2 µg/m3
2022-07-27 07:00 26.78 µg/m3 0.14 µg/m3 29.39 µg/m3 79.44 µg/m3 31.8 µg/m3 26.76 °C 98.34 % 1,001.65 mbar 1.03 m/s 178.22 Deg 6 µg/m3
2022-07-27 06:00 30.21 µg/m3 0.09 µg/m3 19.6 µg/m3 61.68 µg/m3 22.01 µg/m3 26.5 °C 98.57 % 1,001.40 mbar 0.95 m/s 259.97 Deg 5.29 µg/m3
2022-07-27 05:00 23.51 µg/m3 0.06 µg/m3 29.43 µg/m3 51.81 µg/m3 18.58 µg/m3 26.9 °C 95.97 % 1,001.15 mbar 1.05 m/s 344.75 Deg 2.82 µg/m3
2022-07-27 04:00 7.32 µg/m3 0.11 µg/m3 56.58 µg/m3 44.35 µg/m3 11.8 µg/m3 27.03 °C 92.42 % 1,001.28 mbar 1.35 m/s 316.68 Deg 1.16 µg/m3
2022-07-27 03:00 4.81 µg/m3 0.09 µg/m3 64.47 µg/m3 30.43 µg/m3 12.13 µg/m3 27.21 °C 89.9 % 1,001.55 mbar 2.28 m/s 307.75 Deg 0.84 µg/m3
2022-07-27 02:00 3.23 µg/m3 0.05 µg/m3 69.94 µg/m3 32.33 µg/m3 9.93 µg/m3 27.48 °C 87.28 % 1,002.04 mbar 2.7 m/s 290.75 Deg 0.68 µg/m3
2022-07-27 01:00 6.14 µg/m3 0.09 µg/m3 65.22 µg/m3 36.17 µg/m3 12.17 µg/m3 27.72 °C 84.84 % 1,002.61 mbar 2.29 m/s 287.68 Deg 0.78 µg/m3
2022-07-27 00:00 5.73 µg/m3 0.07 µg/m3 71.94 µg/m3 12.58 µg/m3 5.71 µg/m3 28.16 °C 76.95 % 1,002.89 mbar 1.71 m/s 267.73 Deg 0.66 µg/m3
2022-07-26 23:00 6.78 µg/m3 0.11 µg/m3 76.05 µg/m3 5.82 µg/m3 4.48 µg/m3 28.67 °C 68.08 % 1,002.98 mbar 1.87 m/s 282.08 Deg 0.75 µg/m3
2022-07-26 22:00 10.76 µg/m3 0.11 µg/m3 71.07 µg/m3 8.9 µg/m3 5.22 µg/m3 28.91 °C 65.48 % 1,003.04 mbar 2.08 m/s 289.88 Deg 0.86 µg/m3
2022-07-26 21:00 9.82 µg/m3 0.11 µg/m3 68.98 µg/m3 13.58 µg/m3 2.89 µg/m3 28.73 °C 72.55 % 1,002.98 mbar 2.16 m/s 284.57 Deg 0.93 µg/m3
2022-07-26 20:00 10.6 µg/m3 0.11 µg/m3 68.92 µg/m3 22.67 µg/m3 2.89 µg/m3 29.03 °C 75.79 % 1,002.64 mbar 2.49 m/s 300.73 Deg 1.38 µg/m3
2022-07-26 19:00 12.13 µg/m3 0.12 µg/m3 73.49 µg/m3 15.12 µg/m3 2.91 µg/m3 30.01 °C 72.8 % 1,002.42 mbar 2.64 m/s 309.9 Deg 1.8 µg/m3
2022-07-26 18:00 11.65 µg/m3 0.14 µg/m3 81.31 µg/m3 7.68 µg/m3 2.92 µg/m3 31.27 °C 64.78 % 1,002.35 mbar 2.96 m/s 309.92 Deg 1.99 µg/m3
2022-07-26 17:00 12.13 µg/m3 0.16 µg/m3 77.93 µg/m3 9 µg/m3 2.96 µg/m3 32.68 °C 54.07 % 1,002.41 mbar 2.72 m/s 305.38 Deg 2.15 µg/m3
2022-07-26 16:00 12.44 µg/m3 0.15 µg/m3 80.37 µg/m3 15.25 µg/m3 3.03 µg/m3 33.59 °C 42.02 % 1,002.86 mbar 2.47 m/s 322.5 Deg 2.57 µg/m3
2022-07-26 15:00 9.15 µg/m3 0.12 µg/m3 88.24 µg/m3 26.2 µg/m3 3.18 µg/m3 33.34 °C 51.95 % 1,003.28 mbar 2.64 m/s 282.16 Deg 1.99 µg/m3
2022-07-26 14:00 3.81 µg/m3 0.13 µg/m3 108.19 µg/m3 45.87 µg/m3 3.47 µg/m3 32.56 °C 63.74 % 1,003.60 mbar 1.99 m/s 203.85 Deg 0.86 µg/m3
2022-07-26 13:00 3.93 µg/m3 0.13 µg/m3 108.49 µg/m3 86.98 µg/m3 4.05 µg/m3 31.56 °C 71.52 % 1,003.87 mbar 3.55 m/s 132.8 Deg 0.88 µg/m3
2022-07-26 12:00 4.03 µg/m3 0.06 µg/m3 99.53 µg/m3 109.8 µg/m3 5.22 µg/m3 31.25 °C 74.97 % 1,004.04 mbar 3.46 m/s 140.87 Deg 0.93 µg/m3
2022-07-26 11:00 6.29 µg/m3 0.09 µg/m3 84.13 µg/m3 45.18 µg/m3 7.56 µg/m3 32.07 °C 69.58 % 1,003.98 mbar 3.55 m/s 151.9 Deg 1.36 µg/m3
2022-07-26 10:00 23.84 µg/m3 0.13 µg/m3 68.68 µg/m3 32.49 µg/m3 12.24 µg/m3 33.87 °C 44.46 % 1,003.84 mbar 1.63 m/s 338.92 Deg 5.03 µg/m3
2022-07-26 09:00 22.41 µg/m3 0.14 µg/m3 52.88 µg/m3 57.08 µg/m3 21.6 µg/m3 31.7 °C 56.81 % 1,003.92 mbar 1.96 m/s 333.75 Deg 5.8 µg/m3
2022-07-26 08:00 21.58 µg/m3 0.15 µg/m3 44.21 µg/m3 58.73 µg/m3 40.31 µg/m3 29.25 °C 81.53 % 1,004.09 mbar 1.68 m/s 316.28 Deg 6.57 µg/m3
2022-07-26 07:00 20.92 µg/m3 0.09 µg/m3 40.09 µg/m3 65.03 µg/m3 41.18 µg/m3 27.57 °C 94.67 % 1,004.02 mbar 1.78 m/s 291.17 Deg 4.63 µg/m3
2022-07-26 06:00 22.07 µg/m3 0.07 µg/m3 40 µg/m3 50.83 µg/m3 28.73 µg/m3 26.85 °C 98.48 % 1,003.96 mbar 1.8 m/s 283.42 Deg 2.95 µg/m3
2022-07-26 05:00 8.75 µg/m3 0.03 µg/m3 64.64 µg/m3 44.49 µg/m3 24.09 µg/m3 26.82 °C 97.53 % 1,003.79 mbar 1.81 m/s 268.28 Deg 0.81 µg/m3
2022-07-26 04:00 3.05 µg/m3 0.13 µg/m3 83.36 µg/m3 40.77 µg/m3 22.81 µg/m3 27.15 °C 92.57 % 1,003.88 mbar 2.87 m/s 284.05 Deg 0.6 µg/m3
2022-07-26 03:00 2.25 µg/m3 0.02 µg/m3 83.39 µg/m3 41.1 µg/m3 14.23 µg/m3 27.33 °C 88.61 % 1,004.25 mbar 2.83 m/s 289.28 Deg 0.68 µg/m3
2022-07-26 02:00 4.56 µg/m3 0.03 µg/m3 82.29 µg/m3 28.38 µg/m3 24.36 µg/m3 27.67 °C 81.46 % 1,004.64 mbar 2.3 m/s 286.25 Deg 0.63 µg/m3
2022-07-26 01:00 6.39 µg/m3 0.04 µg/m3 78.93 µg/m3 30.45 µg/m3 6.11 µg/m3 28.11 °C 72.55 % 1,004.91 mbar 2 m/s 280.07 Deg 0.65 µg/m3
2022-07-26 00:00 17.76 µg/m3 0.07 µg/m3 59.49 µg/m3 21.86 µg/m3 5.44 µg/m3 29.46 °C 45.79 % 1,005.13 mbar 1.55 m/s 271.13 Deg 0.74 µg/m3
2022-07-25 23:00 24.33 µg/m3 0.09 µg/m3 48.83 µg/m3 21.09 µg/m3 4.98 µg/m3 29.76 °C 41.17 % 1,005.24 mbar 1.31 m/s 273.12 Deg 0.94 µg/m3
2022-07-25 22:00 24.76 µg/m3 0.08 µg/m3 56.48 µg/m3 32.62 µg/m3 5.63 µg/m3 30.05 °C 46.99 % 1,005.34 mbar 1.61 m/s 317.67 Deg 1.43 µg/m3
2022-07-25 21:00 26.48 µg/m3 0.08 µg/m3 55.98 µg/m3 27.46 µg/m3 6.35 µg/m3 30.34 °C 51.98 % 1,005.24 mbar 1.36 m/s 294.95 Deg 1.25 µg/m3
2022-07-25 20:00 30.68 µg/m3 0.15 µg/m3 60.3 µg/m3 22.44 µg/m3 8.1 µg/m3 30.99 °C 53.09 % 1,004.96 mbar 1.26 m/s 138.95 Deg 1.51 µg/m3
2022-07-25 19:00 21.55 µg/m3 0.1 µg/m3 77.39 µg/m3 29.23 µg/m3 12.27 µg/m3 31.47 °C 58.54 % 1,004.77 mbar 1.99 m/s 90.92 Deg 3.26 µg/m3
2022-07-25 18:00 13.18 µg/m3 0.06 µg/m3 96.35 µg/m3 24.94 µg/m3 8.4 µg/m3 31.91 °C 63.69 % 1,004.60 mbar 2 m/s 153.54 Deg 2.73 µg/m3
2022-07-25 17:00 16.71 µg/m3 0.04 µg/m3 91.76 µg/m3 18.12 µg/m3 7.35 µg/m3 32.37 °C 61 % 1,004.69 mbar 2.77 m/s 163.48 Deg 2.52 µg/m3
2022-07-25 16:00 18.15 µg/m3 0.07 µg/m3 97.54 µg/m3 25.54 µg/m3 8.34 µg/m3 34.73 °C 36.11 % 1,004.97 mbar 2.82 m/s 353.02 Deg 2.91 µg/m3
2022-07-25 15:00 5.84 µg/m3 0.04 µg/m3 95.8 µg/m3 41.42 µg/m3 10.85 µg/m3 33.95 °C 50.91 % 1,005.39 mbar 2.97 m/s 174.18 Deg 1.37 µg/m3
2022-07-25 14:00 4.1 µg/m3 0.07 µg/m3 98.88 µg/m3 45.26 µg/m3 3.3 µg/m3 32.54 °C 68.21 % 1,005.90 mbar 2.98 m/s 156.78 Deg 1.09 µg/m3
2022-07-25 13:00 6.07 µg/m3 0.05 µg/m3 104.43 µg/m3 38.06 µg/m3 3.71 µg/m3 33.14 °C 61.92 % 1,006.20 mbar 2.22 m/s 142.53 Deg 1.24 µg/m3
2022-07-25 12:00 12.46 µg/m3 0.08 µg/m3 100.04 µg/m3 37.86 µg/m3 4.55 µg/m3 32.98 °C 58 % 1,006.40 mbar 2.48 m/s 180.54 Deg 2.17 µg/m3
2022-07-25 11:00 14.65 µg/m3 0.07 µg/m3 93.87 µg/m3 21.13 µg/m3 6.21 µg/m3 33.8 °C 50.96 % 1,006.52 mbar 2.28 m/s 234.3 Deg 2.52 µg/m3
2022-07-25 10:00 7.94 µg/m3 0.09 µg/m3 98.3 µg/m3 20.28 µg/m3 9.54 µg/m3 34.5 °C 34.61 % 1,006.47 mbar 1.37 m/s 250.43 Deg 1.51 µg/m3
2022-07-25 09:00 18.74 µg/m3 0.05 µg/m3 90.88 µg/m3 32.9 µg/m3 15.2 µg/m3 33.11 °C 39.33 % 1,006.50 mbar 1.96 m/s 265.02 Deg 3.88 µg/m3
2022-07-25 08:00 24.73 µg/m3 0.1 µg/m3 64.57 µg/m3 58.73 µg/m3 23.1 µg/m3 31.1 °C 55.39 % 1,006.66 mbar 1.8 m/s 262.83 Deg 4.62 µg/m3
2022-07-25 07:00 54.79 µg/m3 0.22 µg/m3 24.71 µg/m3 57.85 µg/m3 17.64 µg/m3 27.79 °C 84.66 % 1,006.69 mbar 1.99 m/s 295.65 Deg 15.38 µg/m3
2022-07-25 06:00 50.06 µg/m3 0.12 µg/m3 25.09 µg/m3 36.51 µg/m3 17.77 µg/m3 26.58 °C 89.25 % 1,006.69 mbar 1.86 m/s 299.77 Deg 7.93 µg/m3
2022-07-25 05:00 23.56 µg/m3 0.09 µg/m3 43.95 µg/m3 17.23 µg/m3 15.04 µg/m3 26.49 °C 84.8 % 1,006.49 mbar 1.78 m/s 290.08 Deg 2.06 µg/m3
2022-07-25 04:00 7.87 µg/m3 0.11 µg/m3 62.96 µg/m3 12.32 µg/m3 13.1 µg/m3 26.6 °C 82.58 % 1,006.54 mbar 1.79 m/s 298.88 Deg 0.77 µg/m3
2022-07-25 03:00 5.3 µg/m3 0.04 µg/m3 65.51 µg/m3 13.69 µg/m3 9.62 µg/m3 26.49 °C 85.1 % 1,006.81 mbar 1.21 m/s 303.23 Deg 0.67 µg/m3
2022-07-25 02:00 4.96 µg/m3 0.04 µg/m3 67.79 µg/m3 17.29 µg/m3 16.37 µg/m3 26.56 °C 85.92 % 1,007.32 mbar 1.19 m/s 305.91 Deg 0.63 µg/m3
2022-07-25 01:00 6.43 µg/m3 0.07 µg/m3 69.38 µg/m3 22.46 µg/m3 20.39 µg/m3 26.8 °C 82.86 % 1,007.77 mbar 1.75 m/s 313.08 Deg 1.01 µg/m3
2022-07-25 00:00 7.96 µg/m3 0.06 µg/m3 68.39 µg/m3 38.87 µg/m3 22 µg/m3 27.11 °C 80.04 % 1,008.23 mbar 1.49 m/s 310.97 Deg 0.82 µg/m3
2022-07-24 23:00 13.33 µg/m3 0.06 µg/m3 63.76 µg/m3 39.52 µg/m3 16.77 µg/m3 27.47 °C 78.9 % 1,008.32 mbar 1.54 m/s 312.71 Deg 1.16 µg/m3
2022-07-24 22:00 11.71 µg/m3 0.04 µg/m3 67.2 µg/m3 49.49 µg/m3 22.42 µg/m3 27.59 °C 77.92 % 1,008.27 mbar 1.34 m/s 308 Deg 1.04 µg/m3
2022-07-24 21:00 11.05 µg/m3 0.05 µg/m3 70.36 µg/m3 60.03 µg/m3 18.17 µg/m3 27.99 °C 78.76 % 1,008.07 mbar 1.75 m/s 303.22 Deg 1.16 µg/m3
2022-07-24 20:00 10.84 µg/m3 0.07 µg/m3 75.09 µg/m3 47.9 µg/m3 7.16 µg/m3 28.46 °C 76.85 % 1,007.72 mbar 2.75 m/s 310.18 Deg 1.49 µg/m3
2022-07-24 19:00 10.86 µg/m3 0.06 µg/m3 80.01 µg/m3 33.41 µg/m3 2.98 µg/m3 29.77 °C 67.08 % 1,007.46 mbar 2.69 m/s 310.93 Deg 1.53 µg/m3
2022-07-24 18:00 6.57 µg/m3 0.07 µg/m3 82.24 µg/m3 39.66 µg/m3 3.07 µg/m3 30.97 °C 58.01 % 1,007.36 mbar 3.29 m/s 308.43 Deg 1.4 µg/m3
2022-07-24 17:00 6.28 µg/m3 0.03 µg/m3 82.95 µg/m3 25.54 µg/m3 3.27 µg/m3 31.89 °C 53.7 % 1,007.50 mbar 3.47 m/s 315.02 Deg 1.5 µg/m3
2022-07-24 16:00 4.14 µg/m3 0.06 µg/m3 81.77 µg/m3 12.34 µg/m3 3.66 µg/m3 32.5 °C 48.21 % 1,007.95 mbar 3.44 m/s 308.73 Deg 1.19 µg/m3
2022-07-24 15:00 3.73 µg/m3 0.07 µg/m3 86.83 µg/m3 8.5 µg/m3 4.44 µg/m3 32.92 °C 44.07 % 1,008.33 mbar 3.3 m/s 317.6 Deg 1.23 µg/m3
2022-07-24 14:00 4.26 µg/m3 0.07 µg/m3 89.41 µg/m3 8.46 µg/m3 6.01 µg/m3 32.82 °C 42.58 % 1,008.88 mbar 3.2 m/s 322.52 Deg 1.34 µg/m3
2022-07-24 13:00 4.09 µg/m3 0.06 µg/m3 88.27 µg/m3 8.79 µg/m3 5.41 µg/m3 32.49 °C 45.19 % 1,009.24 mbar 3.61 m/s 319.38 Deg 1.2 µg/m3
2022-07-24 12:00 6 µg/m3 0.05 µg/m3 86.76 µg/m3 8.78 µg/m3 7.05 µg/m3 32.29 °C 47.02 % 1,009.51 mbar 3.08 m/s 317.67 Deg 1.71 µg/m3
2022-07-24 11:00 9.22 µg/m3 0.06 µg/m3 88.39 µg/m3 10.09 µg/m3 7.16 µg/m3 32.29 °C 44.21 % 1,009.71 mbar 3.03 m/s 317.45 Deg 2.51 µg/m3
2022-07-24 10:00 9.11 µg/m3 0.09 µg/m3 82.94 µg/m3 12.82 µg/m3 7.75 µg/m3 31.4 °C 51.78 % 1,009.67 mbar 2.59 m/s 323.57 Deg 1.97 µg/m3
2022-07-24 09:00 7.69 µg/m3 0.08 µg/m3 83.92 µg/m3 16.56 µg/m3 11.67 µg/m3 30.28 °C 56.54 % 1,009.61 mbar 2.83 m/s 317.85 Deg 1.73 µg/m3
2022-07-24 08:00 10.75 µg/m3 0.1 µg/m3 68.71 µg/m3 27.85 µg/m3 16.09 µg/m3 28.73 °C 68.33 % 1,009.59 mbar 2.28 m/s 315.47 Deg 2.51 µg/m3
2022-07-24 07:00 16.4 µg/m3 0.11 µg/m3 46.82 µg/m3 24.7 µg/m3 22.48 µg/m3 26.94 °C 86.74 % 1,009.56 mbar 1.54 m/s 327.18 Deg 3.21 µg/m3
2022-07-24 06:00 13.18 µg/m3 0.07 µg/m3 47.24 µg/m3 29.81 µg/m3 19.73 µg/m3 26.05 °C 92.02 % 1,009.54 mbar 1.41 m/s 326.45 Deg 1.79 µg/m3
2022-07-24 05:00 9.97 µg/m3 0.09 µg/m3 45.37 µg/m3 27.24 µg/m3 20.26 µg/m3 25.77 °C 95.09 % 1,009.35 mbar 1.85 m/s 337.78 Deg 1.1 µg/m3
2022-07-24 04:00 12.12 µg/m3 0.09 µg/m3 47.59 µg/m3 22.73 µg/m3 10.6 µg/m3 26.07 °C 92.67 % 1,009.32 mbar 1.76 m/s 330.37 Deg 0.91 µg/m3
2022-07-24 03:00 6.16 µg/m3 0.06 µg/m3 56.96 µg/m3 30.48 µg/m3 16.9 µg/m3 26.01 °C 85.42 % 1,009.45 mbar 1.72 m/s 326.75 Deg 0.72 µg/m3
2022-07-24 02:00 7.93 µg/m3 0.08 µg/m3 54.66 µg/m3 49.5 µg/m3 16 µg/m3 25.99 °C 88.61 % 1,009.77 mbar 1.8 m/s 313.52 Deg 1.33 µg/m3
2022-07-24 01:00 9.55 µg/m3 0.05 µg/m3 54.37 µg/m3 68.23 µg/m3 25.59 µg/m3 26.37 °C 91.61 % 1,010.19 mbar 1.84 m/s 313 Deg 0.99 µg/m3
2022-07-24 00:00 14.76 µg/m3 0.1 µg/m3 49.55 µg/m3 70.47 µg/m3 26.57 µg/m3 26.85 °C 86.35 % 1,010.50 mbar 1.53 m/s 316.75 Deg 1.35 µg/m3
2022-07-23 23:00 14.93 µg/m3 0.07 µg/m3 53 µg/m3 68.25 µg/m3 15.24 µg/m3 27.39 °C 78.69 % 1,010.60 mbar 1.55 m/s 319.28 Deg 1.35 µg/m3
2022-07-23 22:00 14.23 µg/m3 0.1 µg/m3 60.62 µg/m3 42.8 µg/m3 6.26 µg/m3 27.93 °C 69.28 % 1,010.51 mbar 1.68 m/s 323.9 Deg 1.42 µg/m3
2022-07-23 21:00 16.39 µg/m3 0.08 µg/m3 70.99 µg/m3 25.18 µg/m3 5.1 µg/m3 28.91 °C 51.15 % 1,010.19 mbar 1.95 m/s 322.32 Deg 1.37 µg/m3
2022-07-23 20:00 19.31 µg/m3 0.08 µg/m3 73.51 µg/m3 13.97 µg/m3 5.19 µg/m3 29.92 °C 39.77 % 1,009.71 mbar 2.14 m/s 313.67 Deg 1.58 µg/m3
2022-07-23 19:00 17.33 µg/m3 0.09 µg/m3 78.32 µg/m3 12.65 µg/m3 5.91 µg/m3 31.34 °C 35.81 % 1,009.51 mbar 2.35 m/s 311.95 Deg 1.66 µg/m3
2022-07-23 18:00 9.85 µg/m3 0.07 µg/m3 83.11 µg/m3 14.12 µg/m3 4.65 µg/m3 32.31 °C 37.44 % 1,009.29 mbar 1.94 m/s 314.4 Deg 1.42 µg/m3
2022-07-23 17:00 11.21 µg/m3 0.09 µg/m3 85.93 µg/m3 19.04 µg/m3 5.34 µg/m3 31.48 °C 52.21 % 1,009.52 mbar 2.41 m/s 198.63 Deg 1.85 µg/m3
2022-07-23 16:00 4.99 µg/m3 0.04 µg/m3 88.58 µg/m3 11.28 µg/m3 5.78 µg/m3 31.81 °C 55.52 % 1,009.76 mbar 1.78 m/s 228.82 Deg 1.18 µg/m3
2022-07-23 15:00 3.36 µg/m3 0.05 µg/m3 97.96 µg/m3 10.85 µg/m3 5.85 µg/m3 31.57 °C 50.39 % 1,009.85 mbar 3.75 m/s 142.1 Deg 0.91 µg/m3
2022-07-23 14:00 6.34 µg/m3 0.06 µg/m3 95.74 µg/m3 16.41 µg/m3 5.27 µg/m3 30.97 °C 56.9 % 1,010.08 mbar 3.93 m/s 128.18 Deg 1.4 µg/m3
2022-07-23 13:00 10.32 µg/m3 0.06 µg/m3 99.49 µg/m3 23.11 µg/m3 6.9 µg/m3 31.28 °C 56.17 % 1,010.23 mbar 3.72 m/s 153.2 Deg 2.1 µg/m3
2022-07-23 12:00 8.11 µg/m3 0.07 µg/m3 101.46 µg/m3 39.71 µg/m3 9.1 µg/m3 31.15 °C 60.12 % 1,010.43 mbar 3.98 m/s 144.47 Deg 1.48 µg/m3
2022-07-23 11:00 15.47 µg/m3 0.06 µg/m3 95.16 µg/m3 53.99 µg/m3 15.32 µg/m3 30.6 °C 64.8 % 1,010.52 mbar 3.66 m/s 150.28 Deg 2.76 µg/m3
2022-07-23 10:00 15.5 µg/m3 0.09 µg/m3 83.82 µg/m3 39.08 µg/m3 6.76 µg/m3 30.38 °C 67.88 % 1,010.30 mbar 2.95 m/s 155.98 Deg 2.87 µg/m3
2022-07-23 09:00 23.51 µg/m3 0.09 µg/m3 82.45 µg/m3 25.88 µg/m3 9.1 µg/m3 30.78 °C 52.95 % 1,010.29 mbar 1.23 m/s 314.42 Deg 3.85 µg/m3
2022-07-23 08:00 28.69 µg/m3 0.14 µg/m3 69.17 µg/m3 32.85 µg/m3 12.2 µg/m3 29.38 °C 58.62 % 1,010.30 mbar 1.38 m/s 283.32 Deg 4.82 µg/m3
2022-07-23 07:00 38.91 µg/m3 0.16 µg/m3 35.59 µg/m3 35.14 µg/m3 19.05 µg/m3 26.6 °C 82.28 % 1,010.11 mbar 1.44 m/s 301.42 Deg 8.97 µg/m3
2022-07-23 06:00 26.97 µg/m3 0.13 µg/m3 176.38 µg/m3 39.29 µg/m3 15.26 µg/m3 25.48 °C 95.39 % 1,009.94 mbar 1.54 m/s 310.62 Deg 3.93 µg/m3
2022-07-23 05:00 17.16 µg/m3 0.11 µg/m3 48.72 µg/m3 22.06 µg/m3 8.56 µg/m3 25.96 °C 89.37 % 1,009.76 mbar 1.37 m/s 287.1 Deg 1.39 µg/m3
2022-07-23 04:00 12.82 µg/m3 0.17 µg/m3 51.95 µg/m3 21.97 µg/m3 10.44 µg/m3 26.12 °C 84.69 % 1,009.66 mbar 1.13 m/s 290.93 Deg 0.83 µg/m3
2022-07-23 03:00 8.76 µg/m3 0.07 µg/m3 58.82 µg/m3 16.62 µg/m3 15.05 µg/m3 26.35 °C 85.36 % 1,009.79 mbar 0.74 m/s 268.75 Deg 0.7 µg/m3
2022-07-23 02:00 16.53 µg/m3 0.08 µg/m3 42.65 µg/m3 19.32 µg/m3 10.55 µg/m3 26.54 °C 89.44 % 1,009.84 mbar 0.68 m/s 257.33 Deg 0.83 µg/m3
2022-07-23 01:00 9.55 µg/m3 0.09 µg/m3 52.8 µg/m3 33.9 µg/m3 15.71 µg/m3 26.74 °C 89.23 % 1,010.01 mbar 0.81 m/s 283.63 Deg 0.7 µg/m3
2022-07-23 00:00 12.77 µg/m3 0.08 µg/m3 53.52 µg/m3 39.59 µg/m3 26.15 µg/m3 27.12 °C 87.46 % 1,010.05 mbar 0.74 m/s 301.97 Deg 0.84 µg/m3
2022-07-22 23:00 4.89 µg/m3 0.07 µg/m3 71.92 µg/m3 35.2 µg/m3 18.32 µg/m3 27.5 °C 86.97 % 1,010.21 mbar 1.3 m/s 28.63 Deg 0.86 µg/m3
2022-07-22 22:00 13.08 µg/m3 0.08 µg/m3 63.16 µg/m3 33.15 µg/m3 11.38 µg/m3 28.06 °C 81.9 % 1,010.08 mbar 1.48 m/s 88.54 Deg 1.09 µg/m3
2022-07-22 21:00 12.37 µg/m3 0.11 µg/m3 64.26 µg/m3 52.54 µg/m3 18.73 µg/m3 28.38 °C 77.48 % 1,009.63 mbar 1.56 m/s 338.32 Deg 1.09 µg/m3
2022-07-22 20:00 9.31 µg/m3 0.14 µg/m3 72.61 µg/m3 52.36 µg/m3 18.23 µg/m3 28.52 °C 81.22 % 1,009.15 mbar 2.22 m/s 13.85 Deg 1.83 µg/m3
2022-07-22 19:00 12.38 µg/m3 0.16 µg/m3 77.7 µg/m3 29.92 µg/m3 3.26 µg/m3 29.45 °C 75.62 % 1,008.93 mbar 1.9 m/s 93.48 Deg 1.49 µg/m3
2022-07-22 18:00 9.04 µg/m3 0.07 µg/m3 84.29 µg/m3 18.27 µg/m3 3.64 µg/m3 30.63 °C 58.55 % 1,008.84 mbar 1.83 m/s 266.72 Deg 1.28 µg/m3
2022-07-22 17:00 4.32 µg/m3 0.06 µg/m3 91.74 µg/m3 12.93 µg/m3 4.39 µg/m3 31.09 °C 52.32 % 1,008.81 mbar 2.93 m/s 239.45 Deg 1.02 µg/m3
2022-07-22 16:00 3.14 µg/m3 0.03 µg/m3 100.03 µg/m3 11.71 µg/m3 5.9 µg/m3 31.61 °C 45.01 % 1,008.80 mbar 3.26 m/s 217.05 Deg 0.93 µg/m3
2022-07-22 15:00 5.01 µg/m3 0.05 µg/m3 109.57 µg/m3 11.16 µg/m3 6.62 µg/m3 31.38 °C 53.23 % 1,009.09 mbar 2.56 m/s 237.88 Deg 0.96 µg/m3
2022-07-22 14:00 5.01 µg/m3 0.04 µg/m3 109.32 µg/m3 12.5 µg/m3 8.09 µg/m3 30.69 °C 66.54 % 1,009.37 mbar 2.74 m/s 224.87 Deg 1.03 µg/m3
2022-07-22 13:00 5.98 µg/m3 0.03 µg/m3 102.26 µg/m3 14.38 µg/m3 12.29 µg/m3 30.4 °C 70.41 % 1,009.55 mbar 2.72 m/s 215.05 Deg 1.65 µg/m3
2022-07-22 12:00 3.41 µg/m3 0.06 µg/m3 97.43 µg/m3 18.53 µg/m3 17.4 µg/m3 29.75 °C 75.88 % 1,009.81 mbar 2.53 m/s 210.21 Deg 0.91 µg/m3
2022-07-22 11:00 4.15 µg/m3 0.05 µg/m3 101.08 µg/m3 32.52 µg/m3 24.51 µg/m3 29.14 °C 79.76 % 1,009.90 mbar 2.75 m/s 170.07 Deg 0.99 µg/m3
2022-07-22 10:00 9.67 µg/m3 0.04 µg/m3 88.08 µg/m3 49.94 µg/m3 22.44 µg/m3 29.63 °C 77.99 % 1,009.71 mbar 2.05 m/s 230.23 Deg 1.98 µg/m3
2022-07-22 09:00 22.15 µg/m3 0.11 µg/m3 70.85 µg/m3 58.27 µg/m3 38 µg/m3 28.74 °C 76.85 % 1,009.60 mbar 1.41 m/s 201.22 Deg 4.45 µg/m3
2022-07-22 08:00 31.77 µg/m3 0.16 µg/m3 55.57 µg/m3 60.96 µg/m3 22.84 µg/m3 27.56 °C 83.89 % 1,009.38 mbar 1.41 m/s 228.5 Deg 6.56 µg/m3
2022-07-22 07:00 48.27 µg/m3 0.24 µg/m3 33.08 µg/m3 56.6 µg/m3 13.09 µg/m3 26.46 °C 85.65 % 1,009.09 mbar 1.09 m/s 302.49 Deg 10.54 µg/m3
2022-07-22 06:00 47.66 µg/m3 0.17 µg/m3 25.92 µg/m3 40.3 µg/m3 19.55 µg/m3 25.53 °C 87.14 % 1,008.82 mbar 1.15 m/s 311.32 Deg 8.78 µg/m3
2022-07-22 05:00 30.92 µg/m3 0.14 µg/m3 32.59 µg/m3 23.35 µg/m3 15.42 µg/m3 25.62 °C 86.92 % 1,008.57 mbar 0.84 m/s 276.7 Deg 2.59 µg/m3
2022-07-22 04:00 11.92 µg/m3 0.24 µg/m3 45.14 µg/m3 20.82 µg/m3 17.19 µg/m3 26.01 °C 84.51 % 1,008.41 mbar 0.68 m/s 319.68 Deg 0.94 µg/m3
2022-07-22 03:00 10.6 µg/m3 0.08 µg/m3 50.13 µg/m3 19.84 µg/m3 14.36 µg/m3 26.21 °C 84.91 % 1,008.51 mbar 0.9 m/s 307.85 Deg 0.95 µg/m3
2022-07-22 02:00 8.31 µg/m3 0.1 µg/m3 57.9 µg/m3 24.05 µg/m3 8.13 µg/m3 26.49 °C 83.73 % 1,008.72 mbar 0.67 m/s 313.18 Deg 0.74 µg/m3
2022-07-22 01:00 9.36 µg/m3 0.1 µg/m3 61.77 µg/m3 24.97 µg/m3 8.05 µg/m3 26.78 °C 81.41 % 1,009.14 mbar 0.66 m/s 299.55 Deg 0.76 µg/m3
2022-07-22 00:00 11.85 µg/m3 0.08 µg/m3 63.91 µg/m3 31.92 µg/m3 9.19 µg/m3 27.16 °C 78.77 % 1,009.43 mbar 0.96 m/s 293.21 Deg 0.85 µg/m3
2022-07-21 23:00 11.67 µg/m3 0.06 µg/m3 69.12 µg/m3 32.3 µg/m3 14.34 µg/m3 27.42 °C 77.34 % 1,009.60 mbar 0.9 m/s 254.05 Deg 0.8 µg/m3
2022-07-21 22:00 11.49 µg/m3 0.07 µg/m3 69.67 µg/m3 22.98 µg/m3 13.13 µg/m3 27.54 °C 77.03 % 1,009.57 mbar 1.26 m/s 7.5 Deg 0.83 µg/m3
2022-07-21 21:00 6.07 µg/m3 0.06 µg/m3 73.88 µg/m3 19.92 µg/m3 7.42 µg/m3 27.73 °C 75.82 % 1,009.29 mbar 1.46 m/s 16.78 Deg 0.85 µg/m3
2022-07-21 20:00 10.47 µg/m3 0.08 µg/m3 75.74 µg/m3 25.44 µg/m3 9.29 µg/m3 28.02 °C 71.27 % 1,008.96 mbar 2.11 m/s 184.8 Deg 1.46 µg/m3
2022-07-21 19:00 8.48 µg/m3 0.09 µg/m3 96.5 µg/m3 41.13 µg/m3 14.05 µg/m3 28.45 °C 72.47 % 1,008.71 mbar 2.55 m/s 17.45 Deg 1.28 µg/m3
2022-07-21 18:00 7.24 µg/m3 0.03 µg/m3 104.27 µg/m3 51.53 µg/m3 13.77 µg/m3 29.15 °C 73.6 % 1,008.42 mbar 2.37 m/s 101.73 Deg 1.1 µg/m3
2022-07-21 17:00 9.34 µg/m3 0.03 µg/m3 107.84 µg/m3 49.65 µg/m3 6.36 µg/m3 29.82 °C 68.97 % 1,008.74 mbar 2.31 m/s 21.78 Deg 2.57 µg/m3
2022-07-21 16:00 8.29 µg/m3 0.02 µg/m3 114.39 µg/m3 24.61 µg/m3 6.72 µg/m3 30.27 °C 64.11 % 1,009.03 mbar 3.02 m/s 25.4 Deg 1.47 µg/m3
2022-07-21 15:00 6.86 µg/m3 0.01 µg/m3 105.13 µg/m3 25.81 µg/m3 6.28 µg/m3 30.85 °C 63.34 % 1,009.19 mbar 2.95 m/s 209.53 Deg 1.38 µg/m3
2022-07-21 14:00 2.81 µg/m3 0.03 µg/m3 106.18 µg/m3 31.67 µg/m3 6.33 µg/m3 30.2 °C 67.86 % 1,009.44 mbar 3.72 m/s 209.03 Deg 0.86 µg/m3
2022-07-21 13:00 5.49 µg/m3 0.06 µg/m3 107.34 µg/m3 22.16 µg/m3 6.79 µg/m3 29.52 °C 71.32 % 1,009.65 mbar 3.93 m/s 178.73 Deg 1.23 µg/m3
2022-07-21 12:00 9.81 µg/m3 0.06 µg/m3 108.48 µg/m3 13.8 µg/m3 9.3 µg/m3 29.5 °C 70.48 % 1,010.02 mbar 3.83 m/s 153.98 Deg 1.73 µg/m3
2022-07-21 11:00 11.03 µg/m3 0.07 µg/m3 93.93 µg/m3 15.1 µg/m3 11.8 µg/m3 30.55 °C 50.49 % 1,010.12 mbar 1.79 m/s 253 Deg 7.01 µg/m3
2022-07-21 10:00 13.78 µg/m3 0.09 µg/m3 94.63 µg/m3 24.91 µg/m3 20.02 µg/m3 29.39 °C 61.57 % 1,010.22 mbar 2.05 m/s 96.77 Deg 4.46 µg/m3
2022-07-21 09:00 10.74 µg/m3 0.09 µg/m3 92.95 µg/m3 40.77 µg/m3 33.6 µg/m3 28.45 °C 72.66 % 1,010.26 mbar 1.88 m/s 97.73 Deg 2.92 µg/m3
2022-07-21 08:00 29.14 µg/m3 0.16 µg/m3 76.45 µg/m3 48.09 µg/m3 15.43 µg/m3 27.75 °C 76.98 % 1,010.26 mbar 2.24 m/s 22.45 Deg 6.69 µg/m3
2022-07-21 07:00 65.3 µg/m3 0.26 µg/m3 32.4 µg/m3 39.19 µg/m3 16.08 µg/m3 27.12 °C 77.97 % 1,009.78 mbar 1.1 m/s 327.64 Deg 13.86 µg/m3
2022-07-21 06:00 57.05 µg/m3 0.19 µg/m3 25.67 µg/m3 32.84 µg/m3 21.64 µg/m3 26.14 °C 83.6 % 1,009.56 mbar 0.8 m/s 330.35 Deg 8.03 µg/m3
2022-07-21 05:00 25.43 µg/m3 0.11 µg/m3 48.94 µg/m3 32.01 µg/m3 20.99 µg/m3 25.87 °C 85.63 % 1,009.37 mbar 0.97 m/s 310.7 Deg 1.4 µg/m3
2022-07-21 04:00 11.8 µg/m3 0.13 µg/m3 75.31 µg/m3 37.14 µg/m3 22.61 µg/m3 25.92 °C 87.54 % 1,009.29 mbar 0.69 m/s 267.35 Deg 0.71 µg/m3
2022-07-21 03:00 11.01 µg/m3 0.01 µg/m3 85 µg/m3 36.42 µg/m3 19.72 µg/m3 26.06 °C 87.81 % 1,009.50 mbar 0.4 m/s 219.98 Deg 0.68 µg/m3
2022-07-21 02:00 5.72 µg/m3 0.04 µg/m3 99.86 µg/m3 27.65 µg/m3 9.81 µg/m3 26.23 °C 86.86 % 1,009.65 mbar 0.64 m/s 230.83 Deg 0.63 µg/m3
2022-07-21 01:00 2.55 µg/m3 0.06 µg/m3 97.95 µg/m3 38.74 µg/m3 16.07 µg/m3 26.28 °C 85.4 % 1,009.91 mbar 0.49 m/s 176.05 Deg 0.7 µg/m3
2022-07-21 00:00 3.57 µg/m3 0.02 µg/m3 98.73 µg/m3 38.82 µg/m3 19.55 µg/m3 26.35 °C 84.63 % 1,010.25 mbar 0.69 m/s 132.28 Deg 0.72 µg/m3
2022-07-20 23:00 6.04 µg/m3 0.03 µg/m3 105.19 µg/m3 41.35 µg/m3 14.4 µg/m3 26.74 °C 82.46 % 1,010.50 mbar 0.79 m/s 84.04 Deg 0.63 µg/m3
2022-07-20 22:00 4.96 µg/m3 0.06 µg/m3 106.4 µg/m3 30.84 µg/m3 19.01 µg/m3 27.03 °C 79.75 % 1,010.47 mbar 0.81 m/s 159.55 Deg 0.68 µg/m3
2022-07-20 21:00 2.4 µg/m3 0.09 µg/m3 98.76 µg/m3 32.67 µg/m3 19.5 µg/m3 27 °C 78.74 % 1,010.14 mbar 0.97 m/s 177.87 Deg 0.57 µg/m3
2022-07-20 20:00 1.54 µg/m3 0.03 µg/m3 110.71 µg/m3 37.32 µg/m3 15.2 µg/m3 27.31 °C 78.11 % 1,009.83 mbar 1.34 m/s 130.73 Deg 0.57 µg/m3
2022-07-20 19:00 2.78 µg/m3 0.05 µg/m3 105.23 µg/m3 19.8 µg/m3 16.31 µg/m3 27.97 °C 72.69 % 1,009.61 mbar 2.07 m/s 131.13 Deg 0.61 µg/m3
2022-07-20 18:00 10.83 µg/m3 0.04 µg/m3 100.6 µg/m3 18.07 µg/m3 8.32 µg/m3 28.79 °C 65.51 % 1,009.42 mbar 2.87 m/s 149.63 Deg 1.22 µg/m3
2022-07-20 17:00 11.53 µg/m3 0.08 µg/m3 103.56 µg/m3 26.71 µg/m3 6.07 µg/m3 29.11 °C 66.55 % 1,009.36 mbar 3.69 m/s 158.73 Deg 1.66 µg/m3
2022-07-20 16:00 8.43 µg/m3 0.04 µg/m3 101.2 µg/m3 18.27 µg/m3 6.73 µg/m3 29.02 °C 66.54 % 1,009.84 mbar 3.56 m/s 159.98 Deg 1.54 µg/m3
2022-07-20 15:00 6.55 µg/m3 0.04 µg/m3 105.42 µg/m3 16.72 µg/m3 6.63 µg/m3 29.05 °C 67.04 % 1,010.18 mbar 3.3 m/s 155.58 Deg 1.39 µg/m3
2022-07-20 14:00 0.76 µg/m3 0 µg/m3 106.98 µg/m3 21.08 µg/m3 6.38 µg/m3 28.81 °C 68.47 % 1,010.51 mbar 3.37 m/s 143.25 Deg 0.63 µg/m3
2022-07-20 13:00 1.34 µg/m3 0.02 µg/m3 106.87 µg/m3 21.68 µg/m3 5.69 µg/m3 28.76 °C 68.98 % 1,010.85 mbar 3.69 m/s 138.17 Deg 0.69 µg/m3
2022-07-20 12:00 1.43 µg/m3 0.05 µg/m3 113.03 µg/m3 22.59 µg/m3 6.92 µg/m3 28.73 °C 70.22 % 1,011.09 mbar 2.93 m/s 221.22 Deg 0.67 µg/m3
2022-07-20 11:00 1.61 µg/m3 0.03 µg/m3 115.15 µg/m3 16.12 µg/m3 8.75 µg/m3 28.5 °C 66.72 % 1,010.95 mbar 3.19 m/s 176.7 Deg 0.65 µg/m3
2022-07-20 10:00 2.35 µg/m3 0.03 µg/m3 111.19 µg/m3 15.77 µg/m3 11.2 µg/m3 28.72 °C 61.36 % 1,010.83 mbar 3.19 m/s 165.68 Deg 0.72 µg/m3
2022-07-20 09:00 6.32 µg/m3 0.05 µg/m3 99.52 µg/m3 21.6 µg/m3 18.42 µg/m3 28.57 °C 62.89 % 1,010.45 mbar 2.96 m/s 178.72 Deg 1.32 µg/m3
2022-07-20 08:00 10.01 µg/m3 0.07 µg/m3 87.76 µg/m3 36.64 µg/m3 19.47 µg/m3 27.47 °C 77.88 % 1,010.27 mbar 2.88 m/s 220.18 Deg 1.67 µg/m3
2022-07-20 07:00 14.81 µg/m3 0.09 µg/m3 73.89 µg/m3 56.12 µg/m3 20.01 µg/m3 27.16 °C 83.55 % 1,009.98 mbar 1.8 m/s 107.62 Deg 2.03 µg/m3
2022-07-20 06:00 20.07 µg/m3 0.06 µg/m3 61.53 µg/m3 35.14 µg/m3 9.4 µg/m3 26.44 °C 85.03 % 1,009.57 mbar 1.6 m/s 33.07 Deg 1.83 µg/m3
2022-07-20 05:00 13.04 µg/m3 0.06 µg/m3 70.76 µg/m3 14.93 µg/m3 11.2 µg/m3 26.44 °C 82.34 % 1,009.19 mbar 1.18 m/s 29.85 Deg 1.02 µg/m3
2022-07-20 04:00 4.63 µg/m3 0.11 µg/m3 86.41 µg/m3 16.49 µg/m3 14.97 µg/m3 26.43 °C 81.03 % 1,009.03 mbar 0.67 m/s 173.81 Deg 0.65 µg/m3
2022-07-20 03:00 3.96 µg/m3 0.04 µg/m3 92.8 µg/m3 22.76 µg/m3 10.55 µg/m3 26.35 °C 82.68 % 1,008.99 mbar 0.58 m/s 218.18 Deg 0.62 µg/m3
2022-07-20 02:00 3.06 µg/m3 0.05 µg/m3 95.79 µg/m3 23.56 µg/m3 12.68 µg/m3 26.67 °C 81.16 % 1,009.28 mbar 0.83 m/s 109.9 Deg 0.63 µg/m3
2022-07-20 01:00 5.18 µg/m3 0.02 µg/m3 94.29 µg/m3 33.67 µg/m3 9.66 µg/m3 26.5 °C 81.57 % 1,009.54 mbar 0.64 m/s 151.28 Deg 0.68 µg/m3
2022-07-20 00:00 2.59 µg/m3 0.05 µg/m3 93.37 µg/m3 28.64 µg/m3 14.19 µg/m3 26.39 °C 82.51 % 1,009.68 mbar 0.62 m/s 137.44 Deg 0.77 µg/m3
2022-07-19 23:00 4.21 µg/m3 0.01 µg/m3 92.98 µg/m3 27.68 µg/m3 14.24 µg/m3 26.63 °C 83.96 % 1,009.77 mbar 0.89 m/s 133.82 Deg 0.63 µg/m3
2022-07-19 22:00 9.53 µg/m3 0.03 µg/m3 77.53 µg/m3 34.71 µg/m3 18.03 µg/m3 26.79 °C 82.14 % 1,009.71 mbar 0.97 m/s 120.03 Deg 0.69 µg/m3
2022-07-19 21:00 4.26 µg/m3 0.05 µg/m3 89.81 µg/m3 46.14 µg/m3 14.59 µg/m3 26.98 °C 82.7 % 1,009.53 mbar 1.24 m/s 119.58 Deg 0.61 µg/m3
2022-07-19 20:00 6.85 µg/m3 0.05 µg/m3 97.8 µg/m3 33.3 µg/m3 12.74 µg/m3 27.45 °C 81.03 % 1,009.23 mbar 1.81 m/s 208.82 Deg 0.61 µg/m3
2022-07-19 19:00 3.53 µg/m3 0.04 µg/m3 112.15 µg/m3 26.92 µg/m3 22.6 µg/m3 27.83 °C 77.5 % 1,009.17 mbar 2.42 m/s 121.68 Deg 0.61 µg/m3
2022-07-19 18:00 1.79 µg/m3 0.05 µg/m3 106.84 µg/m3 29.33 µg/m3 17.02 µg/m3 28.51 °C 75.18 % 1,009.03 mbar 2.75 m/s 191.68 Deg 0.69 µg/m3
2022-07-19 17:00 7.68 µg/m3 0.05 µg/m3 113.87 µg/m3 24.67 µg/m3 21.5 µg/m3 29.16 °C 74.86 % 1,009.05 mbar 2.82 m/s 171.2 Deg 1.16 µg/m3
2022-07-19 16:00 6.81 µg/m3 0.07 µg/m3 124.05 µg/m3 19.46 µg/m3 14.09 µg/m3 29.45 °C 73.12 % 1,009.14 mbar 3.22 m/s 179.32 Deg 1.07 µg/m3
2022-07-19 15:00 3.48 µg/m3 0.05 µg/m3 122.16 µg/m3 13.66 µg/m3 9.18 µg/m3 29.7 °C 70.52 % 1,009.38 mbar 2.82 m/s 126.57 Deg 0.71 µg/m3
2022-07-19 14:00 4.3 µg/m3 0.08 µg/m3 110.77 µg/m3 14.75 µg/m3 10.71 µg/m3 30.37 °C 64.85 % 1,009.72 mbar 2.4 m/s 138.8 Deg 1.02 µg/m3
2022-07-19 13:00 6.97 µg/m3 0.07 µg/m3 117.05 µg/m3 25.29 µg/m3 15.24 µg/m3 29.91 °C 68.96 % 1,010.03 mbar 2.51 m/s 331.38 Deg 1.51 µg/m3
2022-07-19 12:00 2.85 µg/m3 0.08 µg/m3 120.52 µg/m3 43.51 µg/m3 25.49 µg/m3 29.48 °C 73.26 % 1,010.36 mbar 2.51 m/s 240.68 Deg 0.92 µg/m3
2022-07-19 11:00 6.91 µg/m3 0.08 µg/m3 120.75 µg/m3 47.36 µg/m3 12.25 µg/m3 29.09 °C 73.93 % 1,010.35 mbar 2.71 m/s 99.68 Deg 1.48 µg/m3
2022-07-19 10:00 7.62 µg/m3 0.09 µg/m3 114.83 µg/m3 47.55 µg/m3 16.56 µg/m3 29.25 °C 69.17 % 1,010.19 mbar 2.7 m/s 253.73 Deg 1.53 µg/m3
2022-07-19 09:00 10.92 µg/m3 0.12 µg/m3 104.03 µg/m3 46.89 µg/m3 6.6 µg/m3 29.55 °C 61.13 % 1,009.99 mbar 2.81 m/s 232.43 Deg 2.71 µg/m3
2022-07-19 08:00 18.5 µg/m3 0.1 µg/m3 83.28 µg/m3 54.62 µg/m3 8.2 µg/m3 29.2 °C 61.54 % 1,009.93 mbar 3.1 m/s 36.55 Deg 2.72 µg/m3
2022-07-19 07:00 33.77 µg/m3 0.1 µg/m3 59.71 µg/m3 25.24 µg/m3 9.64 µg/m3 28.17 °C 70.92 % 1,009.74 mbar 2.11 m/s 24.27 Deg 4.69 µg/m3
2022-07-19 06:00 38.09 µg/m3 0.14 µg/m3 49.75 µg/m3 12.67 µg/m3 10 µg/m3 27.14 °C 76.66 % 1,009.45 mbar 1.33 m/s 96.08 Deg 4.57 µg/m3
2022-07-19 05:00 16.85 µg/m3 0.06 µg/m3 74.56 µg/m3 16.9 µg/m3 10.21 µg/m3 26.97 °C 75.05 % 1,009.16 mbar 2.23 m/s 347.27 Deg 1.28 µg/m3
2022-07-19 04:00 6.16 µg/m3 0.08 µg/m3 96.82 µg/m3 24.59 µg/m3 13 µg/m3 27 °C 79.32 % 1,009.16 mbar 2.35 m/s 351.78 Deg 0.69 µg/m3
2022-07-19 03:00 5.37 µg/m3 0.03 µg/m3 89.97 µg/m3 19.71 µg/m3 11.76 µg/m3 26.97 °C 85.62 % 1,009.18 mbar 2.35 m/s 266.08 Deg 0.66 µg/m3
2022-07-19 02:00 12.19 µg/m3 0.05 µg/m3 95.95 µg/m3 14.74 µg/m3 20.63 µg/m3 27.13 °C 85.23 % 1,009.32 mbar 2.35 m/s 347.35 Deg 0.64 µg/m3
2022-07-19 01:00 7.31 µg/m3 0.02 µg/m3 106.9 µg/m3 16.96 µg/m3 15.76 µg/m3 27.06 °C 88.73 % 1,009.75 mbar 2.23 m/s 266.98 Deg 0.59 µg/m3
2022-07-19 00:00 4.86 µg/m3 0.06 µg/m3 109.69 µg/m3 24.98 µg/m3 13.39 µg/m3 27.45 °C 82.45 % 1,010.05 mbar 1.99 m/s 17.58 Deg 0.58 µg/m3
2022-07-18 23:00 4.63 µg/m3 0.07 µg/m3 118.89 µg/m3 43.56 µg/m3 22.57 µg/m3 27.75 °C 78.05 % 1,010.29 mbar 2.21 m/s 23.05 Deg 0.65 µg/m3
2022-07-18 22:00 8.04 µg/m3 0.09 µg/m3 108.94 µg/m3 50.61 µg/m3 20.83 µg/m3 27.75 °C 82.72 % 1,010.32 mbar 2.37 m/s 182.53 Deg 0.72 µg/m3
2022-07-18 21:00 9.6 µg/m3 0.07 µg/m3 109.05 µg/m3 45.44 µg/m3 23.5 µg/m3 27.92 °C 80.37 % 1,010.08 mbar 2.41 m/s 266.52 Deg 0.85 µg/m3
2022-07-18 20:00 12.95 µg/m3 0.05 µg/m3 102.87 µg/m3 20.83 µg/m3 7.24 µg/m3 28.76 °C 68.06 % 1,009.76 mbar 2.37 m/s 190.15 Deg 0.97 µg/m3
2022-07-18 19:00 15.91 µg/m3 0.08 µg/m3 88.93 µg/m3 17.76 µg/m3 7.87 µg/m3 29.84 °C 49.11 % 1,009.46 mbar 2.13 m/s 37.5 Deg 1.37 µg/m3
2022-07-18 18:00 10.7 µg/m3 0.06 µg/m3 110.41 µg/m3 18.92 µg/m3 6.19 µg/m3 30.36 °C 61.8 % 1,009.19 mbar 1.72 m/s 180.22 Deg 1.35 µg/m3
2022-07-18 17:00 2.46 µg/m3 0.03 µg/m3 115.76 µg/m3 26.58 µg/m3 5.47 µg/m3 30.3 °C 63.83 % 1,009.40 mbar 2.29 m/s 167.02 Deg 0.71 µg/m3
2022-07-18 16:00 2.79 µg/m3 0.07 µg/m3 119.17 µg/m3 21.36 µg/m3 6.61 µg/m3 30.36 °C 64.66 % 1,009.88 mbar 2.54 m/s 159.55 Deg 0.78 µg/m3
2022-07-18 15:00 2.44 µg/m3 0.07 µg/m3 106.36 µg/m3 14.04 µg/m3 7.08 µg/m3 30.65 °C 60.41 % 1,010.15 mbar 2.94 m/s 174.4 Deg 0.78 µg/m3
2022-07-18 14:00 3.44 µg/m3 0.06 µg/m3 106.69 µg/m3 15.26 µg/m3 8.58 µg/m3 31.04 °C 49.61 % 1,010.37 mbar 2.72 m/s 172.93 Deg 0.83 µg/m3
2022-07-18 13:00 13.31 µg/m3 0.06 µg/m3 102.18 µg/m3 20.55 µg/m3 10.46 µg/m3 30.54 °C 58.89 % 1,010.64 mbar 2.78 m/s 216.48 Deg 2.37 µg/m3
2022-07-18 12:00 19.84 µg/m3 0.08 µg/m3 85.19 µg/m3 34.52 µg/m3 14.58 µg/m3 30.01 °C 64.85 % 1,010.83 mbar 2.96 m/s 157.52 Deg 4.22 µg/m3
2022-07-18 11:00 10.69 µg/m3 0.1 µg/m3 85.09 µg/m3 31.01 µg/m3 8.15 µg/m3 30.42 °C 64.64 % 1,010.77 mbar 2.36 m/s 203.65 Deg 2.37 µg/m3
2022-07-18 10:00 30.19 µg/m3 0.18 µg/m3 70.91 µg/m3 25.92 µg/m3 10.41 µg/m3 29.91 °C 60.7 % 1,010.57 mbar 2.55 m/s 227.42 Deg 7.19 µg/m3
2022-07-18 09:00 27.59 µg/m3 0.15 µg/m3 73.28 µg/m3 41.81 µg/m3 16.96 µg/m3 30.14 °C 48.99 % 1,010.40 mbar 1.5 m/s 214.81 Deg 6.63 µg/m3
2022-07-18 08:00 23.77 µg/m3 0.14 µg/m3 62.84 µg/m3 37.58 µg/m3 6.01 µg/m3 28.12 °C 70.11 % 1,010.31 mbar 1.94 m/s 97.17 Deg 5.19 µg/m3
2022-07-18 07:00 59.54 µg/m3 0.33 µg/m3 31.59 µg/m3 15.41 µg/m3 5.09 µg/m3 27.21 °C 60.06 % 1,010.21 mbar 1.44 m/s 257.68 Deg 15.86 µg/m3
2022-07-18 06:00 54.94 µg/m3 0.16 µg/m3 28.92 µg/m3 11.69 µg/m3 5.21 µg/m3 25.86 °C 62.74 % 1,010.10 mbar 1.46 m/s 313.83 Deg 7.81 µg/m3
2022-07-18 05:00 32.78 µg/m3 0.14 µg/m3 42.55 µg/m3 13.11 µg/m3 5.69 µg/m3 25.85 °C 60.52 % 1,010.07 mbar 1.31 m/s 322.52 Deg 2.38 µg/m3
2022-07-18 04:00 22.63 µg/m3 0.15 µg/m3 45.97 µg/m3 14.49 µg/m3 7.67 µg/m3 25.78 °C 70.22 % 1,010.03 mbar 1.31 m/s 325.9 Deg 1.58 µg/m3
2022-07-18 03:00 10.51 µg/m3 0.09 µg/m3 54.35 µg/m3 18.36 µg/m3 6.92 µg/m3 25.88 °C 82.07 % 1,010.02 mbar 1.16 m/s 317.88 Deg 0.79 µg/m3
2022-07-18 02:00 13.36 µg/m3 0.08 µg/m3 55.69 µg/m3 21.18 µg/m3 9.36 µg/m3 26.03 °C 83.96 % 1,010.17 mbar 1 m/s 310.9 Deg 0.73 µg/m3
2022-07-18 01:00 11.14 µg/m3 0.05 µg/m3 68.64 µg/m3 28.85 µg/m3 12.43 µg/m3 26.23 °C 86.33 % 1,010.46 mbar 0.91 m/s 251.57 Deg 0.87 µg/m3
2022-07-18 00:00 9.7 µg/m3 0.05 µg/m3 76.19 µg/m3 30.41 µg/m3 10.35 µg/m3 26.47 °C 86.95 % 1,010.79 mbar 1.34 m/s 265.97 Deg 0.83 µg/m3
2022-07-17 23:00 15.99 µg/m3 0.04 µg/m3 71.61 µg/m3 28.13 µg/m3 14.15 µg/m3 26.65 °C 84.04 % 1,010.90 mbar 2.01 m/s 90.95 Deg 1.17 µg/m3
2022-07-17 22:00 8.32 µg/m3 0.07 µg/m3 86.81 µg/m3 29.38 µg/m3 21.03 µg/m3 26.94 °C 79.57 % 1,010.81 mbar 2.56 m/s 354 Deg 1.05 µg/m3
2022-07-17 21:00 5.64 µg/m3 0.06 µg/m3 87.79 µg/m3 30.73 µg/m3 11.78 µg/m3 27 °C 77 % 1,010.49 mbar 2.62 m/s 179.62 Deg 1.09 µg/m3
2022-07-17 20:00 7.62 µg/m3 0.08 µg/m3 86.07 µg/m3 29.44 µg/m3 15.28 µg/m3 27.39 °C 76.33 % 1,009.83 mbar 2.59 m/s 96.53 Deg 1 µg/m3
2022-07-17 19:00 8.04 µg/m3 0.11 µg/m3 90.87 µg/m3 28.35 µg/m3 24.84 µg/m3 28.04 °C 70.94 % 1,009.61 mbar 2.47 m/s 23.23 Deg 1.08 µg/m3
2022-07-17 18:00 5.2 µg/m3 0.07 µg/m3 101.3 µg/m3 25.66 µg/m3 7.38 µg/m3 28.8 °C 69.1 % 1,009.50 mbar 2.48 m/s 35.52 Deg 0.98 µg/m3
2022-07-17 17:00 4.63 µg/m3 0.08 µg/m3 111.53 µg/m3 13.34 µg/m3 8.83 µg/m3 29.64 °C 67.67 % 1,009.55 mbar 2.19 m/s 106.45 Deg 0.93 µg/m3
2022-07-17 16:00 4.22 µg/m3 0.1 µg/m3 113.55 µg/m3 11.15 µg/m3 7.73 µg/m3 30.38 °C 60.14 % 1,009.84 mbar 1.93 m/s 232.07 Deg 0.92 µg/m3
2022-07-17 15:00 5.79 µg/m3 0.07 µg/m3 110.69 µg/m3 14.84 µg/m3 8.2 µg/m3 30.52 °C 53.54 % 1,009.95 mbar 2.36 m/s 217.65 Deg 1.08 µg/m3
2022-07-17 14:00 3.19 µg/m3 0.09 µg/m3 106.79 µg/m3 15.21 µg/m3 7.6 µg/m3 29.61 °C 66.14 % 1,010.05 mbar 2.44 m/s 237.3 Deg 0.84 µg/m3
2022-07-17 13:00 2.4 µg/m3 0.08 µg/m3 107.16 µg/m3 19.37 µg/m3 9.52 µg/m3 29.67 °C 63.35 % 1,010.12 mbar 2.44 m/s 204.38 Deg 0.71 µg/m3
2022-07-17 12:00 3.06 µg/m3 0.07 µg/m3 99.1 µg/m3 29.42 µg/m3 6.25 µg/m3 29.18 °C 64.51 % 1,010.40 mbar 2.67 m/s 175.6 Deg 0.86 µg/m3
2022-07-17 11:00 4.51 µg/m3 0.07 µg/m3 95.75 µg/m3 29.18 µg/m3 6.09 µg/m3 29.21 °C 63.54 % 1,010.39 mbar 2.77 m/s 153.67 Deg 1.02 µg/m3
2022-07-17 10:00 13.18 µg/m3 0.09 µg/m3 95.21 µg/m3 21.33 µg/m3 5.38 µg/m3 29.71 °C 55.15 % 1,010.17 mbar 1.82 m/s 252.21 Deg 2.11 µg/m3
2022-07-17 09:00 24.49 µg/m3 0.14 µg/m3 79.39 µg/m3 11.82 µg/m3 5.21 µg/m3 29.61 °C 50.29 % 1,010.05 mbar 1.63 m/s 231.89 Deg 3.93 µg/m3
2022-07-17 08:00 41.47 µg/m3 0.21 µg/m3 51.93 µg/m3 9.21 µg/m3 6.47 µg/m3 28.56 °C 55.94 % 1,009.97 mbar 0.74 m/s 223.59 Deg 9.34 µg/m3
2022-07-17 07:00 49.52 µg/m3 0.24 µg/m3 28.7 µg/m3 9.86 µg/m3 6.68 µg/m3 26.42 °C 65.24 % 1,009.62 mbar 0.82 m/s 319.1 Deg 11.57 µg/m3
2022-07-17 06:00 53.33 µg/m3 0.22 µg/m3 17.88 µg/m3 13.93 µg/m3 6.96 µg/m3 25.22 °C 64.26 % 1,009.25 mbar 0.9 m/s 336.95 Deg 8.45 µg/m3
2022-07-17 05:00 24.14 µg/m3 0.13 µg/m3 41.46 µg/m3 18.76 µg/m3 10.39 µg/m3 24.83 °C 70.88 % 1,008.93 mbar 1.11 m/s 334.85 Deg 1.63 µg/m3
2022-07-17 04:00 11.43 µg/m3 0.11 µg/m3 45.83 µg/m3 26.34 µg/m3 14.53 µg/m3 24.33 °C 88.47 % 1,008.90 mbar 1.17 m/s 320 Deg 1.01 µg/m3
2022-07-17 03:00 12.19 µg/m3 0.15 µg/m3 38.82 µg/m3 25.5 µg/m3 11.01 µg/m3 24.68 °C 94.84 % 1,009.06 mbar 1 m/s 306.18 Deg 0.99 µg/m3
2022-07-17 02:00 13.33 µg/m3 0.1 µg/m3 44.55 µg/m3 26.05 µg/m3 15.62 µg/m3 25.13 °C 92.24 % 1,009.30 mbar 0.94 m/s 303.67 Deg 0.94 µg/m3
2022-07-17 01:00 17.71 µg/m3 0.07 µg/m3 53.06 µg/m3 33.02 µg/m3 13.15 µg/m3 25.73 °C 87.51 % 1,009.50 mbar 1.46 m/s 344.93 Deg 1.07 µg/m3
2022-07-17 00:00 15 µg/m3 0.09 µg/m3 54.31 µg/m3 45.87 µg/m3 17.21 µg/m3 25.9 °C 85.25 % 1,009.78 mbar 1.44 m/s 262.51 Deg 1.67 µg/m3
2022-07-16 23:00 15.35 µg/m3 0.07 µg/m3 50.44 µg/m3 34.58 µg/m3 5.96 µg/m3 26.1 °C 84.18 % 1,009.81 mbar 1.66 m/s 349.67 Deg 1.21 µg/m3
2022-07-16 22:00 11.15 µg/m3 0.07 µg/m3 64.48 µg/m3 34.82 µg/m3 5.9 µg/m3 26.45 °C 75.86 % 1,009.77 mbar 2 m/s 353.38 Deg 1.22 µg/m3
2022-07-16 21:00 13.15 µg/m3 0.07 µg/m3 59.36 µg/m3 31.79 µg/m3 6.24 µg/m3 26.65 °C 78.37 % 1,009.39 mbar 1.6 m/s 311.78 Deg 1.21 µg/m3
2022-07-16 20:00 11.57 µg/m3 0.1 µg/m3 63.45 µg/m3 36.4 µg/m3 6.32 µg/m3 26.98 °C 80.16 % 1,008.74 mbar 1.94 m/s 89.92 Deg 1.4 µg/m3
2022-07-16 19:00 6.6 µg/m3 0.08 µg/m3 76.7 µg/m3 21.89 µg/m3 5.44 µg/m3 27.51 °C 74.52 % 1,008.43 mbar 2.65 m/s 24.43 Deg 1.06 µg/m3
2022-07-16 18:00 6.18 µg/m3 0.08 µg/m3 90.29 µg/m3 9.35 µg/m3 4.28 µg/m3 28.36 °C 65.2 % 1,008.14 mbar 2.74 m/s 19.35 Deg 1.16 µg/m3
2022-07-16 17:00 7.92 µg/m3 0.08 µg/m3 107.91 µg/m3 9.34 µg/m3 4.03 µg/m3 29.54 °C 50.19 % 1,008.29 mbar 2.56 m/s 24.05 Deg 1.34 µg/m3
2022-07-16 16:00 4.78 µg/m3 0.07 µg/m3 105.13 µg/m3 9.81 µg/m3 3.16 µg/m3 30.39 °C 41.44 % 1,008.47 mbar 3.28 m/s 147.02 Deg 0.96 µg/m3
2022-07-16 15:00 1.82 µg/m3 0.09 µg/m3 105.12 µg/m3 8.53 µg/m3 3.44 µg/m3 30.18 °C 40.15 % 1,008.66 mbar 3 m/s 192.43 Deg 0.65 µg/m3
2022-07-16 14:00 8.97 µg/m3 0.09 µg/m3 112.79 µg/m3 7.72 µg/m3 4 µg/m3 29.78 °C 46.05 % 1,008.73 mbar 3.46 m/s 167.62 Deg 1.4 µg/m3
2022-07-16 13:00 15.45 µg/m3 0.12 µg/m3 114.63 µg/m3 7.56 µg/m3 5.1 µg/m3 29.18 °C 52.03 % 1,008.88 mbar 3.28 m/s 155.47 Deg 2.15 µg/m3
2022-07-16 12:00 6.54 µg/m3 0.1 µg/m3 115.47 µg/m3 9.08 µg/m3 4.01 µg/m3 28.71 °C 65.45 % 1,009.04 mbar 2.54 m/s 229.4 Deg 1.11 µg/m3
2022-07-16 11:00 8.45 µg/m3 0.09 µg/m3 107.9 µg/m3 11.75 µg/m3 5.13 µg/m3 28.21 °C 67.07 % 1,009.09 mbar 2.91 m/s 166.08 Deg 1.37 µg/m3
2022-07-16 10:00 13.36 µg/m3 0.13 µg/m3 96.86 µg/m3 17.79 µg/m3 7.38 µg/m3 28.67 °C 65.61 % 1,008.73 mbar 2.04 m/s 272.37 Deg 2.09 µg/m3
2022-07-16 09:00 18.03 µg/m3 0.16 µg/m3 89.78 µg/m3 25.99 µg/m3 10.34 µg/m3 28.72 °C 49.74 % 1,008.43 mbar 1.26 m/s 292.48 Deg 2.88 µg/m3
2022-07-16 08:00 21.61 µg/m3 0.16 µg/m3 79.77 µg/m3 44.41 µg/m3 14.97 µg/m3 26.58 °C 64.14 % 1,008.48 mbar 1.2 m/s 318.17 Deg 3.88 µg/m3
2022-07-16 07:00 28.91 µg/m3 0.17 µg/m3 61.73 µg/m3 30.38 µg/m3 20.77 µg/m3 24.73 °C 92.76 % 1,008.28 mbar 1.41 m/s 312.98 Deg 4.6 µg/m3
2022-07-16 06:00 29.43 µg/m3 0.15 µg/m3 46.77 µg/m3 25.03 µg/m3 17.67 µg/m3 23.98 °C 98.27 % 1,008.10 mbar 1.17 m/s 310.07 Deg 2.64 µg/m3
2022-07-16 05:00 11.89 µg/m3 0.12 µg/m3 68.82 µg/m3 23.65 µg/m3 10.8 µg/m3 24.06 °C 98.44 % 1,007.96 mbar 1.28 m/s 311.52 Deg 0.81 µg/m3
2022-07-16 04:00 9.21 µg/m3 0.18 µg/m3 66 µg/m3 15.25 µg/m3 6.02 µg/m3 24.21 °C 96.93 % 1,007.96 mbar 1.12 m/s 303.55 Deg 0.7 µg/m3
2022-07-16 03:00 9.48 µg/m3 0.15 µg/m3 65.29 µg/m3 17.04 µg/m3 6.9 µg/m3 24.53 °C 95.82 % 1,008.01 mbar 1.09 m/s 306.47 Deg 0.7 µg/m3
2022-07-16 02:00 2.57 µg/m3 0.07 µg/m3 78.57 µg/m3 26.87 µg/m3 9 µg/m3 25.14 °C 94.47 % 1,008.16 mbar 1.14 m/s 337.38 Deg 0.57 µg/m3
2022-07-16 01:00 6.53 µg/m3 0.15 µg/m3 75.31 µg/m3 40.65 µg/m3 11.39 µg/m3 25.45 °C 92.17 % 1,008.18 mbar 1.52 m/s 181.4 Deg 0.81 µg/m3
2022-07-16 00:00 8.44 µg/m3 0.1 µg/m3 78.1 µg/m3 26.2 µg/m3 11.7 µg/m3 25.9 °C 85.94 % 1,008.24 mbar 1.47 m/s 178.58 Deg 0.69 µg/m3
2022-07-15 23:00 4.61 µg/m3 0.12 µg/m3 86.73 µg/m3 26.4 µg/m3 17.29 µg/m3 26.17 °C 82.4 % 1,008.22 mbar 1.81 m/s 24.35 Deg 0.82 µg/m3
2022-07-15 22:00 4.52 µg/m3 0.1 µg/m3 88.35 µg/m3 45.63 µg/m3 12.27 µg/m3 26.41 °C 82.67 % 1,008.07 mbar 2.31 m/s 6.23 Deg 0.85 µg/m3
2022-07-15 21:00 7.07 µg/m3 0.14 µg/m3 87.64 µg/m3 32.62 µg/m3 10.57 µg/m3 26.74 °C 80.41 % 1,007.62 mbar 2.29 m/s 184.88 Deg 0.93 µg/m3
2022-07-15 20:00 16.68 µg/m3 0.11 µg/m3 82.28 µg/m3 19.28 µg/m3 18.24 µg/m3 27.39 °C 74.81 % 1,007.14 mbar 2.23 m/s 9.73 Deg 1.4 µg/m3
2022-07-15 19:00 21.14 µg/m3 0.09 µg/m3 83.99 µg/m3 20.44 µg/m3 6.2 µg/m3 28.51 °C 69.29 % 1,006.90 mbar 1.81 m/s 92.87 Deg 1.54 µg/m3
2022-07-15 18:00 4.45 µg/m3 0.08 µg/m3 93.82 µg/m3 28.89 µg/m3 5.17 µg/m3 28.65 °C 68.23 % 1,006.80 mbar 2.55 m/s 230.7 Deg 0.87 µg/m3
2022-07-15 17:00 2.18 µg/m3 0.07 µg/m3 97.72 µg/m3 31.39 µg/m3 5.69 µg/m3 28.35 °C 70.07 % 1,006.70 mbar 3.26 m/s 206.65 Deg 0.73 µg/m3
2022-07-15 16:00 2.72 µg/m3 0.08 µg/m3 91.71 µg/m3 22.77 µg/m3 5.79 µg/m3 28.17 °C 71.1 % 1,006.95 mbar 3.88 m/s 208.45 Deg 0.85 µg/m3
2022-07-15 15:00 5.99 µg/m3 0.06 µg/m3 105.25 µg/m3 18.21 µg/m3 5.33 µg/m3 28.82 °C 66.02 % 1,007.05 mbar 1.9 m/s 280.71 Deg 1.1 µg/m3
2022-07-15 14:00 6.4 µg/m3 0.07 µg/m3 101.76 µg/m3 19.28 µg/m3 6.07 µg/m3 28.78 °C 67.07 % 1,007.33 mbar 2.21 m/s 89.58 Deg 1.3 µg/m3
2022-07-15 13:00 7.48 µg/m3 0.07 µg/m3 92.24 µg/m3 22.89 µg/m3 6.91 µg/m3 29.14 °C 62.36 % 1,007.68 mbar 2.58 m/s 222 Deg 1.64 µg/m3
2022-07-15 12:00 13.51 µg/m3 0.13 µg/m3 91.88 µg/m3 28.06 µg/m3 8.97 µg/m3 28.57 °C 68.59 % 1,008.04 mbar 2.3 m/s 260.62 Deg 6.23 µg/m3
2022-07-15 11:00 10.52 µg/m3 0.09 µg/m3 91.6 µg/m3 26.14 µg/m3 11.35 µg/m3 27.97 °C 72.21 % 1,008.26 mbar 2.89 m/s 95.17 Deg 2.78 µg/m3
2022-07-15 10:00 10.53 µg/m3 0.1 µg/m3 87.87 µg/m3 38.48 µg/m3 18.51 µg/m3 27.44 °C 74.06 % 1,008.21 mbar 2.83 m/s 185.47 Deg 2.31 µg/m3
2022-07-15 09:00 27.11 µg/m3 0.18 µg/m3 69.21 µg/m3 40.99 µg/m3 17.17 µg/m3 26.74 °C 76.64 % 1,008.06 mbar 2.61 m/s 157.43 Deg 5.89 µg/m3
2022-07-15 08:00 37.18 µg/m3 0.13 µg/m3 58.94 µg/m3 63.24 µg/m3 16.36 µg/m3 26.58 °C 76.52 % 1,007.88 mbar 0.94 m/s 288.53 Deg 7.43 µg/m3
2022-07-15 07:00 50.1 µg/m3 0.15 µg/m3 38.09 µg/m3 101.99 µg/m3 16.25 µg/m3 25.56 °C 83.39 % 1,007.73 mbar 0.9 m/s 180.15 Deg 10.44 µg/m3
2022-07-15 06:00 29.46 µg/m3 0.12 µg/m3 44.73 µg/m3 54.12 µg/m3 9.62 µg/m3 24.23 °C 87.83 % 1,007.47 mbar 0.72 m/s 239.63 Deg 3.24 µg/m3
2022-07-15 05:00 18.28 µg/m3 0.11 µg/m3 54.63 µg/m3 23.4 µg/m3 7.41 µg/m3 23.93 °C 89.35 % 1,007.38 mbar 1.04 m/s 329.52 Deg 1.24 µg/m3
2022-07-15 04:00 5.47 µg/m3 0.15 µg/m3 71.1 µg/m3 20.52 µg/m3 7.44 µg/m3 24.19 °C 88.86 % 1,007.39 mbar 1.38 m/s 309.92 Deg 0.64 µg/m3
2022-07-15 03:00 2.9 µg/m3 0.06 µg/m3 75.89 µg/m3 16.17 µg/m3 8.43 µg/m3 24.52 °C 88.19 % 1,007.66 mbar 1.88 m/s 279.7 Deg 0.58 µg/m3
2022-07-15 02:00 6.33 µg/m3 0.11 µg/m3 71.02 µg/m3 18.56 µg/m3 10.07 µg/m3 24.68 °C 84.47 % 1,008.18 mbar 1.34 m/s 285.75 Deg 0.7 µg/m3
2022-07-15 01:00 7.98 µg/m3 0.11 µg/m3 70.62 µg/m3 27.26 µg/m3 6.44 µg/m3 25.06 °C 80.74 % 1,008.70 mbar 1.3 m/s 293.65 Deg 0.67 µg/m3
2022-07-15 00:00 9.12 µg/m3 0.09 µg/m3 75.02 µg/m3 30.07 µg/m3 6.03 µg/m3 25.36 °C 75.23 % 1,009.21 mbar 1.74 m/s 294.69 Deg 0.69 µg/m3
2022-07-14 23:00 9.34 µg/m3 0.07 µg/m3 69.28 µg/m3 38.2 µg/m3 5.94 µg/m3 25.61 °C 71.02 % 1,009.61 mbar 1.07 m/s 300.51 Deg 0.73 µg/m3
2022-07-14 22:00 13.5 µg/m3 0.09 µg/m3 67.53 µg/m3 25.32 µg/m3 5.54 µg/m3 25.99 °C 65.23 % 1,009.57 mbar 1.56 m/s 321.83 Deg 1.08 µg/m3
2022-07-14 21:00 12.41 µg/m3 0.08 µg/m3 74.86 µg/m3 11.95 µg/m3 6.71 µg/m3 26.36 °C 62.81 % 1,009.42 mbar 1.83 m/s 306.67 Deg 0.99 µg/m3
2022-07-14 20:00 14.04 µg/m3 0.1 µg/m3 77.61 µg/m3 8.7 µg/m3 6.15 µg/m3 26.93 °C 59.66 % 1,009.14 mbar 1.99 m/s 301.67 Deg 1.31 µg/m3
2022-07-14 19:00 11.47 µg/m3 0.09 µg/m3 84.73 µg/m3 10.69 µg/m3 6.22 µg/m3 27.93 °C 56.43 % 1,009.14 mbar 2 m/s 289.45 Deg 1.33 µg/m3
2022-07-14 18:00 6.86 µg/m3 0.07 µg/m3 91.92 µg/m3 16.53 µg/m3 5.07 µg/m3 28.28 °C 60.51 % 1,009.31 mbar 2.17 m/s 272.97 Deg 1.09 µg/m3
2022-07-14 17:00 5.67 µg/m3 0.06 µg/m3 92.48 µg/m3 9.23 µg/m3 4.54 µg/m3 28.07 °C 61.34 % 1,009.70 mbar 2.86 m/s 248.78 Deg 1.2 µg/m3
2022-07-14 16:00 2.65 µg/m3 0.05 µg/m3 89.11 µg/m3 5.09 µg/m3 4.03 µg/m3 27.63 °C 66.09 % 1,010.47 mbar 3.61 m/s 208.98 Deg 0.86 µg/m3
2022-07-14 15:00 1.95 µg/m3 0.08 µg/m3 97.82 µg/m3 4.38 µg/m3 3.3 µg/m3 26.77 °C 69.67 % 1,011.02 mbar 4.18 m/s 157.03 Deg 0.79 µg/m3
2022-07-14 14:00 2.23 µg/m3 0.08 µg/m3 100.79 µg/m3 5.42 µg/m3 3.72 µg/m3 26.81 °C 69.66 % 1,011.49 mbar 3.67 m/s 168.75 Deg 0.76 µg/m3
2022-07-14 13:00 1.25 µg/m3 0.05 µg/m3 97.49 µg/m3 8.09 µg/m3 4.56 µg/m3 26.64 °C 70.19 % 1,011.77 mbar 4.1 m/s 139.58 Deg 0.66 µg/m3
2022-07-14 12:00 1.68 µg/m3 0.05 µg/m3 102.12 µg/m3 8.22 µg/m3 6.24 µg/m3 27.1 °C 66.13 % 1,012.03 mbar 3.92 m/s 139.45 Deg 0.67 µg/m3
2022-07-14 11:00 2.56 µg/m3 0.05 µg/m3 95.39 µg/m3 10.35 µg/m3 6.5 µg/m3 26.92 °C 69.38 % 1,012.30 mbar 3.64 m/s 145.98 Deg 0.85 µg/m3
2022-07-14 10:00 2.82 µg/m3 0.05 µg/m3 92.66 µg/m3 10.3 µg/m3 7.19 µg/m3 26.87 °C 73.66 % 1,012.23 mbar 3.31 m/s 167.63 Deg 0.85 µg/m3
2022-07-14 09:00 4.75 µg/m3 0.05 µg/m3 86.57 µg/m3 15.49 µg/m3 7.3 µg/m3 26.63 °C 75.58 % 1,012.17 mbar 2.32 m/s 236.2 Deg 1.18 µg/m3
2022-07-14 08:00 5.92 µg/m3 0.09 µg/m3 79.02 µg/m3 19.83 µg/m3 11.13 µg/m3 26.18 °C 79.63 % 1,012.24 mbar 1.92 m/s 207.17 Deg 1.38 µg/m3
2022-07-14 07:00 11.42 µg/m3 0.07 µg/m3 72.76 µg/m3 19.16 µg/m3 15.09 µg/m3 25.69 °C 84.47 % 1,012.18 mbar 1.28 m/s 190.78 Deg 1.56 µg/m3
2022-07-14 06:00 10.32 µg/m3 0.08 µg/m3 71.54 µg/m3 25.17 µg/m3 8.89 µg/m3 24.66 °C 91.45 % 1,012.02 mbar 0.67 m/s 150.78 Deg 0.85 µg/m3
2022-07-14 05:00 1.81 µg/m3 0.06 µg/m3 83.56 µg/m3 17.4 µg/m3 7.45 µg/m3 24.24 °C 94.47 % 1,011.96 mbar 0.44 m/s 245.48 Deg 0.53 µg/m3
2022-07-14 04:00 0.96 µg/m3 0.09 µg/m3 91.07 µg/m3 16.83 µg/m3 6.65 µg/m3 24.24 °C 95.23 % 1,011.96 mbar 0.44 m/s 160.82 Deg 0.52 µg/m3
2022-07-14 03:00 0.51 µg/m3 0.05 µg/m3 86.63 µg/m3 17.5 µg/m3 6.29 µg/m3 24.38 °C 94.9 % 1,012.06 mbar 0.32 m/s 138.54 Deg 0.54 µg/m3
2022-07-14 02:00 1.36 µg/m3 0.08 µg/m3 77.6 µg/m3 18.99 µg/m3 5.19 µg/m3 24.58 °C 93.68 % 1,012.32 mbar 0.47 m/s 155.81 Deg 0.6 µg/m3
2022-07-14 01:00 1.59 µg/m3 0.06 µg/m3 77.9 µg/m3 24.64 µg/m3 2.88 µg/m3 24.73 °C 92.71 % 1,012.64 mbar 0.73 m/s 143.88 Deg 0.61 µg/m3
2022-07-14 00:00 1.25 µg/m3 0.11 µg/m3 82.31 µg/m3 30.68 µg/m3 2.88 µg/m3 24.92 °C 91.78 % 1,012.90 mbar 0.86 m/s 124.68 Deg 0.67 µg/m3
2022-07-13 23:00 1.22 µg/m3 0.08 µg/m3 86.02 µg/m3 32.06 µg/m3 2.88 µg/m3 25.31 °C 88.31 % 1,012.91 mbar 1.65 m/s 125.95 Deg 0.66 µg/m3
2022-07-13 22:00 1.28 µg/m3 0.08 µg/m3 94.05 µg/m3 36.26 µg/m3 2.88 µg/m3 25.66 °C 84.73 % 1,012.79 mbar 2.05 m/s 126.53 Deg 0.58 µg/m3
2022-07-13 21:00 2.82 µg/m3 0.07 µg/m3 104.5 µg/m3 32.92 µg/m3 2.88 µg/m3 26.04 °C 78.49 % 1,012.38 mbar 2.08 m/s 114.57 Deg 0.52 µg/m3
2022-07-13 20:00 6.25 µg/m3 0.09 µg/m3 129.84 µg/m3 35.2 µg/m3 2.88 µg/m3 26.36 °C 73.72 % 1,011.88 mbar 2.53 m/s 151.63 Deg 0.52 µg/m3
2022-07-13 19:00 3.39 µg/m3 0.08 µg/m3 102.35 µg/m3 30.5 µg/m3 2.88 µg/m3 27.17 °C 71.86 % 1,011.52 mbar 2.12 m/s 127.03 Deg 1.15 µg/m3
2022-07-13 18:00 5.11 µg/m3 0.11 µg/m3 112.54 µg/m3 15.25 µg/m3 2.88 µg/m3 27.99 °C 62.05 % 1,011.23 mbar 2.33 m/s 150.63 Deg 0.77 µg/m3
2022-07-13 17:00 2.5 µg/m3 0.09 µg/m3 116.21 µg/m3 10.44 µg/m3 2.88 µg/m3 28.38 °C 56.81 % 1,011.21 mbar 2.88 m/s 204.37 Deg 0.64 µg/m3
2022-07-13 16:00 2.32 µg/m3 0.12 µg/m3 112.77 µg/m3 11.79 µg/m3 2.88 µg/m3 29.29 °C 50.39 % 1,011.43 mbar 3.02 m/s 171.12 Deg 0.61 µg/m3
2022-07-13 15:00 3.56 µg/m3 0.11 µg/m3 108.07 µg/m3 15.59 µg/m3 2.88 µg/m3 29.76 °C 46.52 % 1,011.89 mbar 2.09 m/s 313.73 Deg 0.76 µg/m3
2022-07-13 14:00 4.98 µg/m3 0.12 µg/m3 101.85 µg/m3 20.93 µg/m3 2.88 µg/m3 28.97 °C 51.93 % 1,012.29 mbar 2.22 m/s 186.65 Deg 1.06 µg/m3
2022-07-13 13:00 7.97 µg/m3 0.13 µg/m3 96.68 µg/m3 30.6 µg/m3 2.88 µg/m3 27.86 °C 63.92 % 1,012.74 mbar 3.02 m/s 102.32 Deg 1.71 µg/m3
2022-07-13 12:00 7.1 µg/m3 0.15 µg/m3 90.93 µg/m3 20.12 µg/m3 2.88 µg/m3 27.2 °C 71.8 % 1,012.92 mbar 4.59 m/s 104.73 Deg 1.89 µg/m3
2022-07-13 11:00 8.74 µg/m3 0.15 µg/m3 83.77 µg/m3 15.37 µg/m3 2.88 µg/m3 28.38 °C 57.48 % 1,012.62 mbar 4.06 m/s 179.43 Deg 2.22 µg/m3
2022-07-13 10:00 13.29 µg/m3 0.15 µg/m3 69.59 µg/m3 13.33 µg/m3 2.88 µg/m3 28.34 °C 59.71 % 1,012.42 mbar 3.44 m/s 16.28 Deg 3.38 µg/m3
2022-07-13 09:00 31.28 µg/m3 0.3 µg/m3 52.16 µg/m3 20.14 µg/m3 2.88 µg/m3 28.72 °C 50.89 % 1,012.32 mbar 2.53 m/s 179.58 Deg 9.85 µg/m3
2022-07-13 08:00 37.11 µg/m3 0.26 µg/m3 40.63 µg/m3 34.7 µg/m3 2.88 µg/m3 27.21 °C 62.55 % 1,012.27 mbar 2.41 m/s 260.6 Deg 12.19 µg/m3
2022-07-13 07:00 52.69 µg/m3 0.45 µg/m3 11.7 µg/m3 28.63 µg/m3 2.88 µg/m3 25.34 °C 84.39 % 1,012.04 mbar 1.32 m/s 333.35 Deg 28.52 µg/m3
2022-07-13 06:00 48.07 µg/m3 0.31 µg/m3 7.47 µg/m3 14.98 µg/m3 2.88 µg/m3 24.23 °C 87.54 % 1,011.72 mbar 0.98 m/s 319.07 Deg 17.29 µg/m3
2022-07-13 05:00 28.38 µg/m3 0.16 µg/m3 17.45 µg/m3 16.36 µg/m3 2.88 µg/m3 23.8 °C 89.59 % 1,011.64 mbar 1.09 m/s 330.7 Deg 3.07 µg/m3
2022-07-13 04:00 9.15 µg/m3 0.18 µg/m3 37.72 µg/m3 24.85 µg/m3 2.88 µg/m3 23.88 °C 95.38 % 1,011.67 mbar 1.05 m/s 311.38 Deg 0.9 µg/m3
2022-07-13 03:00 5.76 µg/m3 0.09 µg/m3 43.8 µg/m3 13.19 µg/m3 2.88 µg/m3 24.23 °C 95.69 % 1,011.83 mbar 1.09 m/s 301.25 Deg 0.77 µg/m3
2022-07-13 02:00 12.16 µg/m3 0.1 µg/m3 41.56 µg/m3 9.37 µg/m3 2.88 µg/m3 24.64 °C 92.75 % 1,012.22 mbar 1.01 m/s 298.83 Deg 0.94 µg/m3
2022-07-13 01:00 15.1 µg/m3 0.07 µg/m3 45.27 µg/m3 4.48 µg/m3 2.88 µg/m3 25.16 °C 89.37 % 1,012.39 mbar 1.58 m/s 330.12 Deg 0.9 µg/m3
2022-07-13 00:00 20.47 µg/m3 0.07 µg/m3 43.72 µg/m3 2.75 µg/m3 2.88 µg/m3 25.31 °C 88.88 % 1,012.67 mbar 2.27 m/s 350.33 Deg 0.91 µg/m3
2022-07-12 23:00 16.75 µg/m3 0.09 µg/m3 47.22 µg/m3 2.75 µg/m3 2.88 µg/m3 25.54 °C 86.93 % 1,012.84 mbar 2.13 m/s 349.2 Deg 1.32 µg/m3
2022-07-12 22:00 15.39 µg/m3 0.13 µg/m3 51.9 µg/m3 2.75 µg/m3 2.88 µg/m3 25.82 °C 83.95 % 1,012.99 mbar 2.52 m/s 348.25 Deg 1.58 µg/m3
2022-07-12 21:00 15.64 µg/m3 0.12 µg/m3 55.05 µg/m3 2.75 µg/m3 2.88 µg/m3 26.53 °C 75.03 % 1,012.71 mbar 1.91 m/s 341.47 Deg 1.39 µg/m3
2022-07-12 20:00 12.49 µg/m3 0.14 µg/m3 61.19 µg/m3 2.75 µg/m3 2.88 µg/m3 27.26 °C 67.87 % 1,012.21 mbar 2.05 m/s 314.78 Deg 1.46 µg/m3
2022-07-12 19:00 10.08 µg/m3 0.14 µg/m3 64.65 µg/m3 2.75 µg/m3 2.88 µg/m3 28.45 °C 58 % 1,011.83 mbar 2.2 m/s 294.53 Deg 1.26 µg/m3
2022-07-12 18:00 8.62 µg/m3 0.11 µg/m3 67.24 µg/m3 2.75 µg/m3 2.88 µg/m3 28.88 °C 57.46 % 1,011.78 mbar 2.46 m/s 273.88 Deg 1.51 µg/m3
2022-07-12 17:00 7.68 µg/m3 0.12 µg/m3 72.43 µg/m3 2.75 µg/m3 2.88 µg/m3 29.15 °C 58.82 % 1,012.18 mbar 2.66 m/s 262.43 Deg 1.69 µg/m3
2022-07-12 16:00 4.36 µg/m3 0.1 µg/m3 85.76 µg/m3 2.75 µg/m3 2.88 µg/m3 28.84 °C 62.63 % 1,012.57 mbar 3.7 m/s 225.9 Deg 1.07 µg/m3
2022-07-12 15:00 4.2 µg/m3 0.1 µg/m3 91.78 µg/m3 2.75 µg/m3 2.88 µg/m3 28.75 °C 62.68 % 1,012.87 mbar 3.73 m/s 188.75 Deg 0.92 µg/m3
2022-07-12 14:00 11.38 µg/m3 0.12 µg/m3 83.1 µg/m3 2.75 µg/m3 2.88 µg/m3 28.26 °C 64.58 % 1,013.20 mbar 3.78 m/s 159.95 Deg 1.96 µg/m3
2022-07-12 13:00 5.21 µg/m3 0.11 µg/m3 78.19 µg/m3 2.75 µg/m3 2.88 µg/m3 28.42 °C 62.91 % 1,013.40 mbar 2.92 m/s 168.11 Deg 1.15 µg/m3
2022-07-12 12:00 1.81 µg/m3 0.12 µg/m3 71.71 µg/m3 2.75 µg/m3 2.88 µg/m3 28.38 °C 63.6 % 1,013.61 mbar 2.23 m/s 193.19 Deg 0.63 µg/m3
2022-07-12 11:00 0 µg/m3 0 µg/m3 0 µg/m3 2.75 µg/m3 2.88 µg/m3 27.73 °C 69.32 % 1,013.57 mbar 2.73 m/s 144.58 Deg 0 µg/m3
2022-07-12 10:00 0 µg/m3 0 µg/m3 0 µg/m3 2.75 µg/m3 2.88 µg/m3 27.83 °C 70.47 % 1,013.29 mbar 2.36 m/s 179.23 Deg 0 µg/m3
2022-07-12 09:00 0 µg/m3 0 µg/m3 0 µg/m3 2.75 µg/m3 2.88 µg/m3 27.48 °C 70.26 % 1,012.90 mbar 1.81 m/s 256.17 Deg 0 µg/m3
2022-07-12 08:00 0 µg/m3 0 µg/m3 0 µg/m3 2.75 µg/m3 2.88 µg/m3 26.64 °C 71.39 % 1,012.58 mbar 1.07 m/s 239.13 Deg 0 µg/m3
2022-07-12 07:00 0 µg/m3 0 µg/m3 0 µg/m3 21.68 µg/m3 5.73 µg/m3 25.86 °C 77.84 % 1,012.25 mbar 1.39 m/s 31.22 Deg 0 µg/m3
2022-07-12 06:00 48.48 µg/m3 0.3 µg/m3 11.61 µg/m3 23.1 µg/m3 7.33 µg/m3 24.73 °C 81.62 % 1,011.92 mbar 0.77 m/s 166 Deg 16.16 µg/m3
2022-07-12 05:00 27.25 µg/m3 0.13 µg/m3 28.38 µg/m3 15.59 µg/m3 7.76 µg/m3 24.47 °C 82.87 % 1,011.61 mbar 0.83 m/s 264.17 Deg 3.14 µg/m3
2022-07-12 04:00 7.93 µg/m3 0.14 µg/m3 54.75 µg/m3 11.12 µg/m3 6.54 µg/m3 24.72 °C 82.78 % 1,011.44 mbar 1.02 m/s 27.57 Deg 0.68 µg/m3
2022-07-12 03:00 4.14 µg/m3 0.04 µg/m3 59.69 µg/m3 10.21 µg/m3 5.84 µg/m3 24.92 °C 80.26 % 1,011.41 mbar 0.91 m/s 31.87 Deg 0.53 µg/m3
2022-07-12 02:00 0.99 µg/m3 0.03 µg/m3 67.19 µg/m3 14.14 µg/m3 7.33 µg/m3 25.06 °C 78.61 % 1,011.54 mbar 0.87 m/s 182.37 Deg 0.47 µg/m3
2022-07-12 01:00 0.56 µg/m3 0.07 µg/m3 66.11 µg/m3 20.23 µg/m3 10.5 µg/m3 24.98 °C 78.31 % 1,011.69 mbar 0.98 m/s 127.97 Deg 0.55 µg/m3
2022-07-12 00:00 0.66 µg/m3 0.05 µg/m3 64.9 µg/m3 31.31 µg/m3 14.04 µg/m3 25.01 °C 80.13 % 1,011.62 mbar 1.21 m/s 111.12 Deg 0.52 µg/m3
2022-07-11 23:00 1.59 µg/m3 0.05 µg/m3 60.58 µg/m3 26.63 µg/m3 4.66 µg/m3 25.23 °C 80.94 % 1,011.31 mbar 1.34 m/s 126.05 Deg 0.62 µg/m3
2022-07-11 22:00 2 µg/m3 0.03 µg/m3 63.01 µg/m3 21.73 µg/m3 6.43 µg/m3 25.5 °C 78.87 % 1,010.87 mbar 1.74 m/s 128.45 Deg 0.57 µg/m3
2022-07-11 21:00 1.55 µg/m3 0.06 µg/m3 67.72 µg/m3 28.77 µg/m3 8.15 µg/m3 25.65 °C 80.62 % 1,010.29 mbar 2.06 m/s 116.62 Deg 0.57 µg/m3
2022-07-11 20:00 1.97 µg/m3 0 µg/m3 73.09 µg/m3 48.13 µg/m3 5.4 µg/m3 25.86 °C 77.95 % 1,009.68 mbar 2.36 m/s 140.35 Deg 0.58 µg/m3
2022-07-11 19:00 7.05 µg/m3 0.03 µg/m3 72.98 µg/m3 24.34 µg/m3 6.13 µg/m3 26.47 °C 72.69 % 1,009.29 mbar 2.62 m/s 159.93 Deg 0.85 µg/m3
2022-07-11 18:00 12.12 µg/m3 0.08 µg/m3 70.84 µg/m3 15.89 µg/m3 5.39 µg/m3 26.91 °C 68.19 % 1,008.87 mbar 2.8 m/s 154.55 Deg 1.72 µg/m3
2022-07-11 17:00 7.25 µg/m3 0.09 µg/m3 76.5 µg/m3 20.37 µg/m3 5.78 µg/m3 27.32 °C 63.03 % 1,008.75 mbar 3.76 m/s 153.08 Deg 1.46 µg/m3
2022-07-11 16:00 8.54 µg/m3 0.04 µg/m3 77.04 µg/m3 10.19 µg/m3 5.34 µg/m3 27.67 °C 62.93 % 1,008.79 mbar 3.85 m/s 164.63 Deg 1.77 µg/m3
2022-07-11 15:00 5.87 µg/m3 0.08 µg/m3 80.21 µg/m3 7.7 µg/m3 5.5 µg/m3 27.36 °C 63.7 % 1,008.72 mbar 4.22 m/s 170.72 Deg 1.23 µg/m3
2022-07-11 14:00 2.98 µg/m3 0.06 µg/m3 86.33 µg/m3 8.1 µg/m3 5.09 µg/m3 28.28 °C 60.76 % 1,008.72 mbar 2.49 m/s 217.99 Deg 0.84 µg/m3
2022-07-11 13:00 3.02 µg/m3 0.04 µg/m3 85.89 µg/m3 8.63 µg/m3 5.16 µg/m3 27.75 °C 63.5 % 1,008.79 mbar 3.48 m/s 185.38 Deg 0.89 µg/m3
2022-07-11 12:00 3.17 µg/m3 0.02 µg/m3 86.38 µg/m3 11.47 µg/m3 6.67 µg/m3 27.26 °C 67.61 % 1,008.85 mbar 3.25 m/s 183.45 Deg 0.89 µg/m3
2022-07-11 11:00 2.95 µg/m3 0.04 µg/m3 86.85 µg/m3 15.03 µg/m3 9.7 µg/m3 26.89 °C 69.33 % 1,008.81 mbar 2.78 m/s 220.35 Deg 0.89 µg/m3
2022-07-11 10:00 2.98 µg/m3 0.05 µg/m3 85.72 µg/m3 22.47 µg/m3 11.96 µg/m3 26.3 °C 73.99 % 1,008.61 mbar 2.67 m/s 205.97 Deg 0.88 µg/m3
2022-07-11 09:00 4.67 µg/m3 0.05 µg/m3 82.69 µg/m3 28.79 µg/m3 13.22 µg/m3 26.19 °C 76.16 % 1,008.43 mbar 2.28 m/s 229.34 Deg 1.17 µg/m3
2022-07-11 08:00 4.9 µg/m3 0.03 µg/m3 80.46 µg/m3 38.07 µg/m3 14.55 µg/m3 25.67 °C 79.51 % 1,008.07 mbar 2.12 m/s 218.5 Deg 1.34 µg/m3
2022-07-11 07:00 15.24 µg/m3 0.06 µg/m3 66.01 µg/m3 34.9 µg/m3 7.86 µg/m3 24.8 °C 84.49 % 1,007.57 mbar 1.63 m/s 233.91 Deg 2.34 µg/m3
2022-07-11 06:00 30.09 µg/m3 0.06 µg/m3 47.51 µg/m3 24.69 µg/m3 6.03 µg/m3 23.62 °C 89.97 % 1,007.22 mbar 0.9 m/s 234.98 Deg 2.66 µg/m3
2022-07-11 05:00 19.34 µg/m3 0.05 µg/m3 59.04 µg/m3 24.89 µg/m3 5.43 µg/m3 23.5 °C 90.63 % 1,006.92 mbar 0.91 m/s 243.32 Deg 0.93 µg/m3
2022-07-11 04:00 4.86 µg/m3 0.12 µg/m3 76.04 µg/m3 18.08 µg/m3 4.21 µg/m3 23.79 °C 89.24 % 1,006.86 mbar 1.21 m/s 257.37 Deg 0.57 µg/m3
2022-07-11 03:00 5.01 µg/m3 0.06 µg/m3 70.76 µg/m3 15.93 µg/m3 4.7 µg/m3 23.56 °C 87.02 % 1,007.01 mbar 1.03 m/s 236.48 Deg 0.58 µg/m3
2022-07-11 02:00 4.62 µg/m3 0.05 µg/m3 71.82 µg/m3 15.58 µg/m3 5.34 µg/m3 24.08 °C 78.79 % 1,007.25 mbar 1.05 m/s 234.35 Deg 0.55 µg/m3
2022-07-11 01:00 4.62 µg/m3 0.09 µg/m3 82.69 µg/m3 23.51 µg/m3 4.95 µg/m3 24.56 °C 74.78 % 1,007.53 mbar 1.52 m/s 260.98 Deg 0.56 µg/m3
2022-07-11 00:00 10.94 µg/m3 0.08 µg/m3 83.42 µg/m3 27.45 µg/m3 6.18 µg/m3 24.99 °C 72.1 % 1,007.84 mbar 1.41 m/s 279.05 Deg 0.69 µg/m3
2022-07-10 23:00 26.94 µg/m3 0.06 µg/m3 65.37 µg/m3 24.48 µg/m3 8.2 µg/m3 25.01 °C 71.43 % 1,007.93 mbar 1.29 m/s 276.73 Deg 0.88 µg/m3

It is to be noted that the data is provisional and subject to quality assurance procedures. For validated data kindly refer your request to contact.air@era.org.mt